Wetterdaten: Samstag, 23.11.2013
Datum Zeit Temp. Aussen +5cm Feuchte Auss Luftdruck Regen Sonnenschein Regendauer UV Solar Windben
23.11.2013 00:00 4,7 C 3,9 C 91 % 1015,0 hPa 0,0 l/m 0 min 0 min 0,0 UV-I 0 W/m 0,0 km/h (0 Bft)
23.11.2013 00:02 4,7 C 3,9 C 91 % 1014,9 hPa 0,0 l/m 0 min 0 min 0,0 UV-I 0 W/m 10,3 km/h (2 Bft)
23.11.2013 00:06 4,7 C 3,9 C 91 % 1015,0 hPa 0,0 l/m 0 min 0 min 0,0 UV-I 0 W/m 10,3 km/h (2 Bft)
23.11.2013 00:08 4,7 C 3,9 C 91 % 1015,0 hPa 0,0 l/m 0 min 0 min 0,0 UV-I 0 W/m 5,1 km/h (1 Bft)
23.11.2013 00:10 4,7 C 3,3 C 91 % 1015,1 hPa 0,0 l/m 0 min 0 min 0,0 UV-I 0 W/m 0,0 km/h (0 Bft)
23.11.2013 00:12 4,7 C 3,3 C 91 % 1015,1 hPa 0,0 l/m 0 min 0 min 0,0 UV-I 0 W/m 18,0 km/h (3 Bft)
23.11.2013 00:14 4,7 C 3,9 C 91 % 1015,1 hPa 0,0 l/m 0 min 0 min 0,0 UV-I 0 W/m 18,0 km/h (3 Bft)
23.11.2013 00:16 4,7 C 3,3 C 91 % 1015,0 hPa 0,0 l/m 0 min 0 min 0,0 UV-I 0 W/m 10,3 km/h (2 Bft)
23.11.2013 00:18 4,7 C 3,3 C 91 % 1015,0 hPa 0,0 l/m 0 min 0 min 0,0 UV-I 0 W/m 10,3 km/h (2 Bft)
23.11.2013 00:20 4,7 C 3,3 C 91 % 1015,0 hPa 0,0 l/m 0 min 0 min 0,0 UV-I 0 W/m 12,9 km/h (3 Bft)
23.11.2013 00:22 4,7 C 3,3 C 91 % 1015,1 hPa 0,0 l/m 0 min 0 min 0,0 UV-I 0 W/m 15,4 km/h (3 Bft)
23.11.2013 00:24 4,6 C 3,3 C 91 % 1015,1 hPa 0,0 l/m 0 min 0 min 0,0 UV-I 0 W/m 10,3 km/h (2 Bft)
23.11.2013 00:26 4,6 C 3,3 C 91 % 1015,0 hPa 0,0 l/m 0 min 0 min 0,0 UV-I 0 W/m 7,7 km/h (2 Bft)
23.11.2013 00:28 4,6 C 3,3 C 91 % 1015,0 hPa 0,0 l/m 0 min 0 min 0,0 UV-I 0 W/m 12,9 km/h (3 Bft)
23.11.2013 00:30 4,6 C 3,3 C 91 % 1015,1 hPa 0,0 l/m 0 min 0 min 0,0 UV-I 0 W/m 15,4 km/h (3 Bft)
23.11.2013 00:32 4,6 C 3,3 C 91 % 1015,1 hPa 0,0 l/m 0 min 0 min 0,0 UV-I 0 W/m 18,0 km/h (3 Bft)
23.11.2013 00:34 4,6 C 3,3 C 91 % 1015,1 hPa 0,0 l/m 0 min 0 min 0,0 UV-I 0 W/m 12,9 km/h (3 Bft)
23.11.2013 00:36 4,6 C 3,3 C 91 % 1015,1 hPa 0,0 l/m 0 min 0 min 0,0 UV-I 0 W/m 12,9 km/h (3 Bft)
23.11.2013 00:38 4,6 C 3,3 C 91 % 1015,1 hPa 0,0 l/m 0 min 0 min 0,0 UV-I 0 W/m 12,9 km/h (3 Bft)
23.11.2013 00:40 4,6 C 3,3 C 91 % 1015,2 hPa 0,0 l/m 0 min 0 min 0,0 UV-I 0 W/m 10,3 km/h (2 Bft)
23.11.2013 00:42 4,6 C 3,3 C 91 % 1015,2 hPa 0,0 l/m 0 min 0 min 0,0 UV-I 0 W/m 7,7 km/h (2 Bft)
23.11.2013 00:44 4,6 C 3,3 C 91 % 1015,2 hPa 0,0 l/m 0 min 0 min 0,0 UV-I 0 W/m 7,7 km/h (2 Bft)
23.11.2013 00:46 4,6 C 3,3 C 91 % 1015,2 hPa 0,0 l/m 0 min 0 min 0,0 UV-I 0 W/m 12,9 km/h (3 Bft)
23.11.2013 00:48 4,5 C 3,3 C 91 % 1015,2 hPa 0,0 l/m 0 min 0 min 0,0 UV-I 0 W/m 7,7 km/h (2 Bft)
23.11.2013 00:50 4,5 C 3,3 C 91 % 1015,2 hPa 0,0 l/m 0 min 0 min 0,0 UV-I 0 W/m 7,7 km/h (2 Bft)
23.11.2013 00:52 4,5 C 3,3 C 91 % 1015,2 hPa 0,0 l/m 0 min 0 min 0,0 UV-I 0 W/m 7,7 km/h (2 Bft)
23.11.2013 00:54 4,5 C 3,3 C 91 % 1015,3 hPa 0,0 l/m 0 min 0 min 0,0 UV-I 0 W/m 5,1 km/h (1 Bft)
23.11.2013 00:56 4,5 C 3,3 C 91 % 1015,2 hPa 0,0 l/m 0 min 0 min 0,0 UV-I 0 W/m 5,1 km/h (1 Bft)
23.11.2013 00:58 4,5 C 3,3 C 91 % 1015,2 hPa 0,0 l/m 0 min 0 min 0,0 UV-I 0 W/m 0,0 km/h (0 Bft)
23.11.2013 01:00 4,5 C 3,3 C 91 % 1015,2 hPa 0,0 l/m 0 min 0 min 0,0 UV-I 0 W/m 10,3 km/h (2 Bft)
23.11.2013 01:02 4,4 C 3,3 C 91 % 1015,2 hPa 0,0 l/m 0 min 0 min 0,0 UV-I 0 W/m 7,7 km/h (2 Bft)
23.11.2013 01:04 4,5 C 3,3 C 91 % 1015,2 hPa 0,0 l/m 0 min 0 min 0,0 UV-I 0 W/m 15,4 km/h (3 Bft)
23.11.2013 01:06 4,4 C 3,3 C 91 % 1015,2 hPa 0,0 l/m 0 min 0 min 0,0 UV-I 0 W/m 5,1 km/h (1 Bft)
23.11.2013 01:08 4,4 C 3,3 C 91 % 1015,2 hPa 0,0 l/m 0 min 0 min 0,0 UV-I 0 W/m 12,9 km/h (3 Bft)
23.11.2013 01:10 4,4 C 3,3 C 91 % 1015,2 hPa 0,0 l/m 0 min 0 min 0,0 UV-I 0 W/m 12,9 km/h (3 Bft)
23.11.2013 01:12 4,4 C 3,3 C 91 % 1015,2 hPa 0,0 l/m 0 min 0 min 0,0 UV-I 0 W/m 15,4 km/h (3 Bft)
23.11.2013 01:14 4,4 C 3,3 C 91 % 1015,2 hPa 0,0 l/m 0 min 0 min 0,0 UV-I 0 W/m 12,9 km/h (3 Bft)
23.11.2013 01:16 4,4 C 3,3 C 91 % 1015,2 hPa 0,0 l/m 0 min 0 min 0,0 UV-I 0 W/m 10,3 km/h (2 Bft)
23.11.2013 01:18 4,4 C 3,3 C 91 % 1015,2 hPa 0,0 l/m 0 min 0 min 0,0 UV-I 0 W/m 10,3 km/h (2 Bft)
23.11.2013 01:20 4,4 C 3,3 C 91 % 1015,1 hPa 0,0 l/m 0 min 0 min 0,0 UV-I 0 W/m 2,6 km/h (1 Bft)
23.11.2013 01:22 4,4 C 3,3 C 91 % 1015,2 hPa 0,0 l/m 0 min 0 min 0,0 UV-I 0 W/m 7,7 km/h (2 Bft)
23.11.2013 01:24 4,4 C 3,3 C 91 % 1015,2 hPa 0,0 l/m 0 min 0 min 0,0 UV-I 0 W/m 12,9 km/h (3 Bft)
23.11.2013 01:26 4,4 C 3,3 C 91 % 1015,3 hPa 0,0 l/m 0 min 0 min 0,0 UV-I 0 W/m 12,9 km/h (3 Bft)
23.11.2013 01:28 4,4 C 3,3 C 91 % 1015,3 hPa 0,0 l/m 0 min 0 min 0,0 UV-I 0 W/m 10,3 km/h (2 Bft)
23.11.2013 01:30 4,4 C 3,3 C 91 % 1015,3 hPa 0,0 l/m 0 min 0 min 0,0 UV-I 0 W/m 7,7 km/h (2 Bft)
23.11.2013 01:32 4,4 C 3,3 C 91 % 1015,3 hPa 0,0 l/m 0 min 0 min 0,0 UV-I 0 W/m 10,3 km/h (2 Bft)
23.11.2013 01:34 4,4 C 3,3 C 92 % 1015,3 hPa 0,0 l/m 0 min 0 min 0,0 UV-I 0 W/m 10,3 km/h (2 Bft)
23.11.2013 01:36 4,4 C 3,3 C 92 % 1015,3 hPa 0,0 l/m 0 min 0 min 0,0 UV-I 0 W/m 10,3 km/h (2 Bft)
23.11.2013 01:38 4,4 C 3,3 C 92 % 1015,3 hPa 0,0 l/m 0 min 0 min 0,0 UV-I 0 W/m 0,0 km/h (0 Bft)
23.11.2013 01:40 4,4 C 3,3 C 92 % 1015,4 hPa 0,0 l/m 0 min 0 min 0,0 UV-I 0 W/m 7,7 km/h (2 Bft)
23.11.2013 01:42 4,4 C 3,3 C 92 % 1015,4 hPa 0,0 l/m 0 min 0 min 0,0 UV-I 0 W/m 10,3 km/h (2 Bft)
23.11.2013 01:44 4,4 C 3,3 C 92 % 1015,4 hPa 0,0 l/m 0 min 0 min 0,0 UV-I 0 W/m 7,7 km/h (2 Bft)
23.11.2013 01:46 4,4 C 3,3 C 92 % 1015,4 hPa 0,0 l/m 0 min 0 min 0,0 UV-I 0 W/m 7,7 km/h (2 Bft)
23.11.2013 01:48 4,4 C 3,3 C 92 % 1015,5 hPa 0,0 l/m 0 min 0 min 0,0 UV-I 0 W/m 7,7 km/h (2 Bft)
23.11.2013 01:50 4,4 C 3,3 C 92 % 1015,4 hPa 0,0 l/m 0 min 0 min 0,0 UV-I 0 W/m 12,9 km/h (3 Bft)
23.11.2013 01:52 4,4 C 3,3 C 92 % 1015,4 hPa 0,0 l/m 0 min 0 min 0,0 UV-I 0 W/m 10,3 km/h (2 Bft)
23.11.2013 01:54 4,4 C 3,3 C 92 % 1015,5 hPa 0,0 l/m 0 min 0 min 0,0 UV-I 0 W/m 12,9 km/h (3 Bft)
23.11.2013 01:56 4,4 C 3,3 C 92 % 1015,4 hPa 0,0 l/m 0 min 0 min 0,0 UV-I 0 W/m 7,7 km/h (2 Bft)
23.11.2013 01:58 4,4 C 3,3 C 92 % 1015,4 hPa 0,0 l/m 0 min 0 min 0,0 UV-I 0 W/m 7,7 km/h (2 Bft)
23.11.2013 02:00 4,4 C 3,3 C 92 % 1015,5 hPa 0,0 l/m 0 min 0 min 0,0 UV-I 0 W/m 10,3 km/h (2 Bft)
23.11.2013 02:02 4,4 C 3,3 C 92 % 1015,5 hPa 0,0 l/m 0 min 0 min 0,0 UV-I 0 W/m 12,9 km/h (3 Bft)
23.11.2013 02:04 4,4 C 3,3 C 92 % 1015,6 hPa 0,0 l/m 0 min 0 min 0,0 UV-I 0 W/m 10,3 km/h (2 Bft)
23.11.2013 02:06 4,4 C 3,3 C 92 % 1015,5 hPa 0,0 l/m 0 min 0 min 0,0 UV-I 0 W/m 7,7 km/h (2 Bft)
23.11.2013 02:08 4,4 C 3,3 C 92 % 1015,5 hPa 0,0 l/m 0 min 0 min 0,0 UV-I 0 W/m 0,0 km/h (0 Bft)
23.11.2013 02:10 4,4 C 3,3 C 92 % 1015,5 hPa 0,0 l/m 0 min 0 min 0,0 UV-I 0 W/m 12,9 km/h (3 Bft)
23.11.2013 02:12 4,4 C 3,3 C 92 % 1015,5 hPa 0,0 l/m 0 min 0 min 0,0 UV-I 0 W/m 12,9 km/h (3 Bft)
23.11.2013 02:14 4,4 C 3,3 C 92 % 1015,6 hPa 0,0 l/m 0 min 0 min 0,0 UV-I 0 W/m 7,7 km/h (2 Bft)
23.11.2013 02:16 4,4 C 3,3 C 92 % 1015,6 hPa 0,0 l/m 0 min 0 min 0,0 UV-I 0 W/m 7,7 km/h (2 Bft)
23.11.2013 02:18 4,4 C 3,3 C 92 % 1015,6 hPa 0,0 l/m 0 min 0 min 0,0 UV-I 0 W/m 7,7 km/h (2 Bft)
23.11.2013 02:20 4,4 C 3,3 C 92 % 1015,5 hPa 0,0 l/m 0 min 0 min 0,0 UV-I 0 W/m 15,4 km/h (3 Bft)
23.11.2013 02:22 4,3 C 3,3 C 92 % 1015,6 hPa 0,0 l/m 0 min 0 min 0,0 UV-I 0 W/m 12,9 km/h (3 Bft)
23.11.2013 02:24 4,4 C 3,3 C 92 % 1015,6 hPa 0,0 l/m 0 min 0 min 0,0 UV-I 0 W/m 10,3 km/h (2 Bft)
23.11.2013 02:26 4,4 C 3,3 C 92 % 1015,6 hPa 0,0 l/m 0 min 0 min 0,0 UV-I 0 W/m 0,0 km/h (0 Bft)
23.11.2013 02:28 4,3 C 3,3 C 92 % 1015,6 hPa 0,0 l/m 0 min 0 min 0,0 UV-I 0 W/m 0,0 km/h (0 Bft)
23.11.2013 02:30 4,4 C 3,3 C 92 % 1015,6 hPa 0,0 l/m 0 min 0 min 0,0 UV-I 0 W/m 12,9 km/h (3 Bft)
23.11.2013 02:32 4,3 C 3,3 C 92 % 1015,6 hPa 0,0 l/m 0 min 0 min 0,0 UV-I 0 W/m 7,7 km/h (2 Bft)
23.11.2013 02:34 4,3 C 3,3 C 92 % 1015,5 hPa 0,0 l/m 0 min 0 min 0,0 UV-I 0 W/m 10,3 km/h (2 Bft)
23.11.2013 02:36 4,3 C 3,3 C 92 % 1015,6 hPa 0,0 l/m 0 min 0 min 0,0 UV-I 0 W/m 7,7 km/h (2 Bft)
23.11.2013 02:38 4,3 C 3,3 C 92 % 1015,5 hPa 0,0 l/m 0 min 0 min 0,0 UV-I 0 W/m 12,9 km/h (3 Bft)
23.11.2013 02:40 4,3 C 3,3 C 92 % 1015,5 hPa 0,0 l/m 0 min 0 min 0,0 UV-I 0 W/m 15,4 km/h (3 Bft)
23.11.2013 02:42 4,3 C 3,3 C 92 % 1015,6 hPa 0,0 l/m 0 min 0 min 0,0 UV-I 0 W/m 12,9 km/h (3 Bft)
23.11.2013 02:44 4,3 C 3,3 C 92 % 1015,6 hPa 0,0 l/m 0 min 0 min 0,0 UV-I 0 W/m 12,9 km/h (3 Bft)
23.11.2013 02:46 4,3 C 3,3 C 92 % 1015,6 hPa 0,0 l/m 0 min 0 min 0,0 UV-I 0 W/m 10,3 km/h (2 Bft)
23.11.2013 02:48 4,3 C 3,3 C 93 % 1015,5 hPa 0,0 l/m 0 min 0 min 0,0 UV-I 0 W/m 12,9 km/h (3 Bft)
23.11.2013 02:50 4,3 C 3,3 C 92 % 1015,6 hPa 0,0 l/m 0 min 0 min 0,0 UV-I 0 W/m 12,9 km/h (3 Bft)
23.11.2013 02:52 4,3 C 3,3 C 92 % 1015,6 hPa 0,0 l/m 0 min 0 min 0,0 UV-I 0 W/m 10,3 km/h (2 Bft)
23.11.2013 02:54 4,3 C 3,3 C 93 % 1015,6 hPa 0,0 l/m 0 min 0 min 0,0 UV-I 0 W/m 7,7 km/h (2 Bft)
23.11.2013 02:56 4,3 C 3,3 C 92 % 1015,6 hPa 0,0 l/m 0 min 0 min 0,0 UV-I 0 W/m 15,4 km/h (3 Bft)
23.11.2013 02:58 4,3 C 3,3 C 92 % 1015,7 hPa 0,0 l/m 0 min 0 min 0,0 UV-I 0 W/m 10,3 km/h (2 Bft)
23.11.2013 03:00 4,3 C 3,3 C 92 % 1015,7 hPa 0,0 l/m 0 min 0 min 0,0 UV-I 0 W/m 5,1 km/h (1 Bft)
23.11.2013 03:02 4,4 C 3,3 C 93 % 1015,6 hPa 0,0 l/m 0 min 0 min 0,0 UV-I 0 W/m 12,9 km/h (3 Bft)
23.11.2013 03:04 4,4 C 3,3 C 93 % 1015,6 hPa 0,0 l/m 0 min 0 min 0,0 UV-I 0 W/m 12,9 km/h (3 Bft)
23.11.2013 03:06 4,4 C 3,3 C 93 % 1015,6 hPa 0,0 l/m 0 min 0 min 0,0 UV-I 0 W/m 12,9 km/h (3 Bft)
23.11.2013 03:08 4,4 C 3,3 C 93 % 1015,6 hPa 0,0 l/m 0 min 0 min 0,0 UV-I 0 W/m 10,3 km/h (2 Bft)
23.11.2013 03:10 4,4 C 3,3 C 93 % 1015,6 hPa 0,0 l/m 0 min 0 min 0,0 UV-I 0 W/m 0,0 km/h (0 Bft)
23.11.2013 03:12 4,4 C 3,3 C 93 % 1015,6 hPa 0,0 l/m 0 min 0 min 0,0 UV-I 0 W/m 2,6 km/h (1 Bft)
23.11.2013 03:14 4,4 C 3,3 C 93 % 1015,6 hPa 0,0 l/m 0 min 0 min 0,0 UV-I 0 W/m 7,7 km/h (2 Bft)
23.11.2013 03:16 4,4 C 3,3 C 93 % 1015,6 hPa 0,0 l/m 0 min 0 min 0,0 UV-I 0 W/m 10,3 km/h (2 Bft)
23.11.2013 03:18 4,4 C 3,3 C 93 % 1015,7 hPa 0,0 l/m 0 min 0 min 0,0 UV-I 0 W/m 12,9 km/h (3 Bft)
23.11.2013 03:20 4,4 C 3,3 C 93 % 1015,6 hPa 0,0 l/m 0 min 2 min 0,0 UV-I 0 W/m 12,9 km/h (3 Bft)
23.11.2013 03:22 4,4 C 3,3 C 93 % 1015,6 hPa 0,0 l/m 0 min 2 min 0,0 UV-I 0 W/m 0,0 km/h (0 Bft)
23.11.2013 03:24 4,4 C 3,3 C 93 % 1015,7 hPa 0,0 l/m 0 min 2 min 0,0 UV-I 0 W/m 0,0 km/h (0 Bft)
23.11.2013 03:26 4,4 C 3,3 C 93 % 1015,6 hPa 0,0 l/m 0 min 0 min 0,0 UV-I 0 W/m 7,7 km/h (2 Bft)
23.11.2013 03:28 4,4 C 3,3 C 93 % 1015,7 hPa 0,0 l/m 0 min 0 min 0,0 UV-I 0 W/m 7,7 km/h (2 Bft)
23.11.2013 03:30 4,4 C 3,3 C 93 % 1015,7 hPa 0,0 l/m 0 min 2 min 0,0 UV-I 0 W/m 7,7 km/h (2 Bft)
23.11.2013 03:32 4,4 C 3,3 C 93 % 1015,7 hPa 0,0 l/m 0 min 2 min 0,0 UV-I 0 W/m 7,7 km/h (2 Bft)
23.11.2013 03:34 4,3 C 3,3 C 93 % 1015,7 hPa 0,0 l/m 0 min 2 min 0,0 UV-I 0 W/m 7,7 km/h (2 Bft)
23.11.2013 03:36 4,3 C 3,3 C 93 % 1015,7 hPa 0,0 l/m 0 min 2 min 0,0 UV-I 0 W/m 12,9 km/h (3 Bft)
23.11.2013 03:38 4,3 C 3,3 C 93 % 1015,7 hPa 0,0 l/m 0 min 2 min 0,0 UV-I 0 W/m 10,3 km/h (2 Bft)
23.11.2013 03:40 4,3 C 2,8 C 93 % 1015,7 hPa 0,0 l/m 0 min 2 min 0,0 UV-I 0 W/m 10,3 km/h (2 Bft)
23.11.2013 03:42 4,3 C 2,8 C 93 % 1015,6 hPa 0,0 l/m 0 min 2 min 0,0 UV-I 0 W/m 12,9 km/h (3 Bft)
23.11.2013 03:44 4,3 C 2,8 C 93 % 1015,7 hPa 0,0 l/m 0 min 2 min 0,0 UV-I 0 W/m 10,3 km/h (2 Bft)
23.11.2013 03:46 4,3 C 2,8 C 93 % 1015,6 hPa 0,0 l/m 0 min 2 min 0,0 UV-I 0 W/m 7,7 km/h (2 Bft)
23.11.2013 03:48 4,3 C 2,8 C 93 % 1015,7 hPa 0,0 l/m 0 min 2 min 0,0 UV-I 0 W/m 10,3 km/h (2 Bft)
23.11.2013 03:50 4,3 C 2,8 C 93 % 1015,7 hPa 0,0 l/m 0 min 2 min 0,0 UV-I 0 W/m 15,4 km/h (3 Bft)
23.11.2013 03:52 4,3 C 2,8 C 93 % 1015,6 hPa 0,0 l/m 0 min 2 min 0,0 UV-I 0 W/m 5,1 km/h (1 Bft)
23.11.2013 03:54 4,3 C 2,8 C 93 % 1015,6 hPa 0,0 l/m 0 min 2 min 0,0 UV-I 0 W/m 15,4 km/h (3 Bft)
23.11.2013 03:56 4,3 C 2,8 C 93 % 1015,7 hPa 0,0 l/m 0 min 0 min 0,0 UV-I 0 W/m 7,7 km/h (2 Bft)
23.11.2013 03:58 4,3 C 2,8 C 93 % 1015,7 hPa 0,0 l/m 0 min 0 min 0,0 UV-I 0 W/m 2,6 km/h (1 Bft)
23.11.2013 04:00 4,2 C 2,8 C 93 % 1015,7 hPa 0,0 l/m 0 min 0 min 0,0 UV-I 0 W/m 10,3 km/h (2 Bft)
23.11.2013 04:02 4,2 C 2,8 C 93 % 1015,7 hPa 0,0 l/m 0 min 0 min 0,0 UV-I 0 W/m 7,7 km/h (2 Bft)
23.11.2013 04:08 4,2 C 2,8 C 93 % 1015,7 hPa 0,0 l/m 0 min 0 min 0,0 UV-I 0 W/m 12,9 km/h (3 Bft)
23.11.2013 04:10 4,2 C 2,8 C 93 % 1015,7 hPa 0,0 l/m 0 min 0 min 0,0 UV-I 0 W/m 2,6 km/h (1 Bft)
23.11.2013 04:12 4,2 C 2,8 C 94 % 1015,7 hPa 0,0 l/m 0 min 0 min 0,0 UV-I 0 W/m 12,9 km/h (3 Bft)
23.11.2013 04:14 4,2 C 2,8 C 94 % 1015,8 hPa 0,0 l/m 0 min 0 min 0,0 UV-I 0 W/m 7,7 km/h (2 Bft)
23.11.2013 04:16 4,2 C 2,8 C 94 % 1015,7 hPa 0,0 l/m 0 min 0 min 0,0 UV-I 0 W/m 0,0 km/h (0 Bft)
23.11.2013 04:18 4,2 C 2,8 C 94 % 1015,7 hPa 0,0 l/m 0 min 0 min 0,0 UV-I 0 W/m 10,3 km/h (2 Bft)
23.11.2013 04:20 4,2 C 2,8 C 94 % 1015,8 hPa 0,0 l/m 0 min 0 min 0,0 UV-I 0 W/m 12,9 km/h (3 Bft)
23.11.2013 04:22 4,2 C 2,8 C 94 % 1015,8 hPa 0,0 l/m 0 min 0 min 0,0 UV-I 0 W/m 7,7 km/h (2 Bft)
23.11.2013 04:24 4,2 C 2,8 C 94 % 1015,8 hPa 0,0 l/m 0 min 0 min 0,0 UV-I 0 W/m 10,3 km/h (2 Bft)
23.11.2013 04:26 4,2 C 2,8 C 94 % 1015,9 hPa 0,0 l/m 0 min 0 min 0,0 UV-I 0 W/m 10,3 km/h (2 Bft)
23.11.2013 04:28 4,2 C 2,8 C 94 % 1015,8 hPa 0,0 l/m 0 min 0 min 0,0 UV-I 0 W/m 2,6 km/h (1 Bft)
23.11.2013 04:30 4,2 C 2,8 C 94 % 1015,9 hPa 0,0 l/m 0 min 0 min 0,0 UV-I 0 W/m 15,4 km/h (3 Bft)
23.11.2013 04:32 4,2 C 2,8 C 94 % 1015,8 hPa 0,0 l/m 0 min 0 min 0,0 UV-I 0 W/m 15,4 km/h (3 Bft)
23.11.2013 04:34 4,2 C 2,8 C 94 % 1015,8 hPa 0,0 l/m 0 min 0 min 0,0 UV-I 0 W/m 7,7 km/h (2 Bft)
23.11.2013 04:36 4,2 C 2,8 C 94 % 1015,8 hPa 0,0 l/m 0 min 0 min 0,0 UV-I 0 W/m 12,9 km/h (3 Bft)
23.11.2013 04:38 4,2 C 2,8 C 94 % 1015,8 hPa 0,0 l/m 0 min 0 min 0,0 UV-I 0 W/m 7,7 km/h (2 Bft)
23.11.2013 04:40 4,2 C 2,8 C 94 % 1015,8 hPa 0,0 l/m 0 min 0 min 0,0 UV-I 0 W/m 10,3 km/h (2 Bft)
23.11.2013 04:42 4,2 C 2,8 C 94 % 1015,8 hPa 0,0 l/m 0 min 0 min 0,0 UV-I 0 W/m 12,9 km/h (3 Bft)
23.11.2013 04:44 4,2 C 2,8 C 94 % 1015,8 hPa 0,0 l/m 0 min 0 min 0,0 UV-I 0 W/m 15,4 km/h (3 Bft)
23.11.2013 04:46 4,2 C 2,8 C 94 % 1015,8 hPa 0,0 l/m 0 min 0 min 0,0 UV-I 0 W/m 12,9 km/h (3 Bft)
23.11.2013 04:48 4,2 C 2,8 C 94 % 1015,8 hPa 0,0 l/m 0 min 0 min 0,0 UV-I 0 W/m 7,7 km/h (2 Bft)
23.11.2013 04:50 4,2 C 2,8 C 94 % 1015,8 hPa 0,0 l/m 0 min 0 min 0,0 UV-I 0 W/m 5,1 km/h (1 Bft)
23.11.2013 04:52 4,2 C 2,8 C 94 % 1015,8 hPa 0,0 l/m 0 min 0 min 0,0 UV-I 0 W/m 10,3 km/h (2 Bft)
23.11.2013 04:54 4,2 C 2,8 C 94 % 1015,9 hPa 0,0 l/m 0 min 0 min 0,0 UV-I 0 W/m 12,9 km/h (3 Bft)
23.11.2013 04:56 4,2 C 2,8 C 94 % 1015,9 hPa 0,0 l/m 0 min 0 min 0,0 UV-I 0 W/m 12,9 km/h (3 Bft)
23.11.2013 04:58 4,2 C 2,8 C 94 % 1015,9 hPa 0,0 l/m 0 min 0 min 0,0 UV-I 0 W/m 10,3 km/h (2 Bft)
23.11.2013 05:00 4,2 C 2,8 C 94 % 1015,9 hPa 0,0 l/m 0 min 0 min 0,0 UV-I 0 W/m 15,4 km/h (3 Bft)
23.11.2013 05:02 4,2 C 2,8 C 94 % 1016,0 hPa 0,0 l/m 0 min 0 min 0,0 UV-I 0 W/m 10,3 km/h (2 Bft)
23.11.2013 05:04 4,2 C 2,8 C 94 % 1015,9 hPa 0,0 l/m 0 min 0 min 0,0 UV-I 0 W/m 10,3 km/h (2 Bft)
23.11.2013 05:06 4,2 C 2,8 C 94 % 1015,9 hPa 0,0 l/m 0 min 0 min 0,0 UV-I 0 W/m 12,9 km/h (3 Bft)
23.11.2013 05:08 4,2 C 2,8 C 94 % 1016,0 hPa 0,0 l/m 0 min 0 min 0,0 UV-I 0 W/m 10,3 km/h (2 Bft)
23.11.2013 05:10 4,2 C 2,8 C 94 % 1016,0 hPa 0,0 l/m 0 min 0 min 0,0 UV-I 0 W/m 15,4 km/h (3 Bft)
23.11.2013 05:12 4,2 C 2,8 C 94 % 1016,0 hPa 0,0 l/m 0 min 0 min 0,0 UV-I 0 W/m 15,4 km/h (3 Bft)
23.11.2013 05:14 4,2 C 2,8 C 94 % 1016,1 hPa 0,0 l/m 0 min 0 min 0,0 UV-I 0 W/m 10,3 km/h (2 Bft)
23.11.2013 05:16 4,2 C 2,8 C 94 % 1016,1 hPa 0,0 l/m 0 min 0 min 0,0 UV-I 0 W/m 18,0 km/h (3 Bft)
23.11.2013 05:18 4,2 C 3,3 C 94 % 1016,1 hPa 0,0 l/m 0 min 0 min 0,0 UV-I 0 W/m 12,9 km/h (3 Bft)
23.11.2013 05:20 4,2 C 3,3 C 94 % 1016,1 hPa 0,0 l/m 0 min 0 min 0,0 UV-I 0 W/m 15,4 km/h (3 Bft)
23.11.2013 05:22 4,2 C 3,3 C 94 % 1016,1 hPa 0,0 l/m 0 min 0 min 0,0 UV-I 0 W/m 15,4 km/h (3 Bft)
23.11.2013 05:24 4,2 C 3,3 C 94 % 1016,1 hPa 0,0 l/m 0 min 0 min 0,0 UV-I 0 W/m 15,4 km/h (3 Bft)
23.11.2013 05:26 4,2 C 3,3 C 94 % 1016,1 hPa 0,0 l/m 0 min 0 min 0,0 UV-I 0 W/m 15,4 km/h (3 Bft)
23.11.2013 05:28 4,3 C 3,3 C 94 % 1016,1 hPa 0,0 l/m 0 min 0 min 0,0 UV-I 0 W/m 12,9 km/h (3 Bft)
23.11.2013 05:30 4,3 C 3,3 C 94 % 1016,1 hPa 0,0 l/m 0 min 0 min 0,0 UV-I 0 W/m 12,9 km/h (3 Bft)
23.11.2013 05:32 4,3 C 3,3 C 94 % 1016,1 hPa 0,0 l/m 0 min 0 min 0,0 UV-I 0 W/m 12,9 km/h (3 Bft)
23.11.2013 05:34 4,3 C 3,3 C 94 % 1016,1 hPa 0,0 l/m 0 min 0 min 0,0 UV-I 0 W/m 12,9 km/h (3 Bft)
23.11.2013 05:36 4,3 C 3,3 C 94 % 1016,1 hPa 0,0 l/m 0 min 0 min 0,0 UV-I 0 W/m 18,0 km/h (3 Bft)
23.11.2013 05:38 4,3 C 3,3 C 94 % 1016,2 hPa 0,0 l/m 0 min 0 min 0,0 UV-I 0 W/m 18,0 km/h (3 Bft)
23.11.2013 05:40 4,3 C 3,3 C 94 % 1016,2 hPa 0,0 l/m 0 min 0 min 0,0 UV-I 0 W/m 12,9 km/h (3 Bft)
23.11.2013 05:42 4,3 C 3,3 C 94 % 1016,3 hPa 0,0 l/m 0 min 0 min 0,0 UV-I 0 W/m 18,0 km/h (3 Bft)
23.11.2013 05:44 4,3 C 3,3 C 94 % 1016,3 hPa 0,0 l/m 0 min 0 min 0,0 UV-I 0 W/m 15,4 km/h (3 Bft)
23.11.2013 05:46 4,3 C 3,3 C 94 % 1016,2 hPa 0,0 l/m 0 min 0 min 0,0 UV-I 0 W/m 10,3 km/h (2 Bft)
23.11.2013 05:48 4,3 C 3,3 C 94 % 1016,3 hPa 0,0 l/m 0 min 0 min 0,0 UV-I 0 W/m 10,3 km/h (2 Bft)
23.11.2013 05:50 4,3 C 3,3 C 94 % 1016,3 hPa 0,0 l/m 0 min 0 min 0,0 UV-I 0 W/m 12,9 km/h (3 Bft)
23.11.2013 05:52 4,3 C 3,3 C 94 % 1016,3 hPa 0,0 l/m 0 min 0 min 0,0 UV-I 0 W/m 7,7 km/h (2 Bft)
23.11.2013 05:54 4,3 C 3,3 C 94 % 1016,3 hPa 0,0 l/m 0 min 0 min 0,0 UV-I 0 W/m 10,3 km/h (2 Bft)
23.11.2013 05:56 4,3 C 3,3 C 94 % 1016,4 hPa 0,0 l/m 0 min 0 min 0,0 UV-I 0 W/m 10,3 km/h (2 Bft)
23.11.2013 05:58 4,3 C 3,3 C 94 % 1016,4 hPa 0,0 l/m 0 min 0 min 0,0 UV-I 0 W/m 5,1 km/h (1 Bft)
23.11.2013 06:00 4,3 C 3,3 C 94 % 1016,4 hPa 0,0 l/m 0 min 0 min 0,0 UV-I 0 W/m 12,9 km/h (3 Bft)
23.11.2013 06:02 4,3 C 3,3 C 94 % 1016,4 hPa 0,0 l/m 0 min 0 min 0,0 UV-I 0 W/m 15,4 km/h (3 Bft)
23.11.2013 06:04 4,3 C 3,3 C 94 % 1016,4 hPa 0,0 l/m 0 min 0 min 0,0 UV-I 0 W/m 10,3 km/h (2 Bft)
23.11.2013 06:06 4,3 C 3,3 C 94 % 1016,4 hPa 0,0 l/m 0 min 0 min 0,0 UV-I 0 W/m 10,3 km/h (2 Bft)
23.11.2013 06:08 4,3 C 3,3 C 94 % 1016,5 hPa 0,0 l/m 0 min 0 min 0,0 UV-I 0 W/m 7,7 km/h (2 Bft)
23.11.2013 06:10 4,3 C 3,3 C 94 % 1016,4 hPa 0,0 l/m 0 min 0 min 0,0 UV-I 0 W/m 5,1 km/h (1 Bft)
23.11.2013 06:12 4,3 C 3,3 C 94 % 1016,4 hPa 0,0 l/m 0 min 0 min 0,0 UV-I 0 W/m 18,0 km/h (3 Bft)
23.11.2013 06:14 4,3 C 3,3 C 94 % 1016,4 hPa 0,0 l/m 0 min 0 min 0,0 UV-I 0 W/m 20,6 km/h (4 Bft)
23.11.2013 06:16 4,3 C 3,3 C 94 % 1016,4 hPa 0,0 l/m 0 min 0 min 0,0 UV-I 0 W/m 15,4 km/h (3 Bft)
23.11.2013 06:18 4,3 C 3,3 C 94 % 1016,4 hPa 0,0 l/m 0 min 0 min 0,0 UV-I 0 W/m 12,9 km/h (3 Bft)
23.11.2013 06:20 4,3 C 3,3 C 94 % 1016,4 hPa 0,0 l/m 0 min 0 min 0,0 UV-I 0 W/m 15,4 km/h (3 Bft)
23.11.2013 06:22 4,3 C 3,3 C 94 % 1016,5 hPa 0,0 l/m 0 min 0 min 0,0 UV-I 0 W/m 18,0 km/h (3 Bft)
23.11.2013 06:24 4,3 C 3,3 C 94 % 1016,4 hPa 0,0 l/m 0 min 0 min 0,0 UV-I 0 W/m 12,9 km/h (3 Bft)
23.11.2013 06:26 4,3 C 3,3 C 94 % 1016,4 hPa 0,0 l/m 0 min 0 min 0,0 UV-I 0 W/m 12,9 km/h (3 Bft)
23.11.2013 06:28 4,3 C 3,3 C 94 % 1016,5 hPa 0,0 l/m 0 min 0 min 0,0 UV-I 0 W/m 10,3 km/h (2 Bft)
23.11.2013 06:30 4,3 C 3,3 C 94 % 1016,5 hPa 0,0 l/m 0 min 0 min 0,0 UV-I 0 W/m 15,4 km/h (3 Bft)
23.11.2013 06:32 4,3 C 3,3 C 94 % 1016,5 hPa 0,0 l/m 0 min 0 min 0,0 UV-I 0 W/m 12,9 km/h (3 Bft)
23.11.2013 06:34 4,3 C 3,3 C 94 % 1016,6 hPa 0,0 l/m 0 min 0 min 0,0 UV-I 0 W/m 10,3 km/h (2 Bft)
23.11.2013 06:36 4,3 C 3,3 C 94 % 1016,6 hPa 0,0 l/m 0 min 0 min 0,0 UV-I 0 W/m 12,9 km/h (3 Bft)
23.11.2013 06:38 4,3 C 3,3 C 94 % 1016,7 hPa 0,0 l/m 0 min 0 min 0,0 UV-I 0 W/m 15,4 km/h (3 Bft)
23.11.2013 06:40 4,3 C 3,3 C 94 % 1016,6 hPa 0,0 l/m 0 min 0 min 0,0 UV-I 0 W/m 7,7 km/h (2 Bft)
23.11.2013 06:42 4,3 C 3,3 C 94 % 1016,7 hPa 0,0 l/m 0 min 0 min 0,0 UV-I 0 W/m 10,3 km/h (2 Bft)
23.11.2013 06:44 4,3 C 3,3 C 94 % 1016,7 hPa 0,0 l/m 0 min 0 min 0,0 UV-I 0 W/m 10,3 km/h (2 Bft)
23.11.2013 06:46 4,3 C 3,3 C 94 % 1016,7 hPa 0,0 l/m 0 min 0 min 0,0 UV-I 0 W/m 10,3 km/h (2 Bft)
23.11.2013 06:48 4,4 C 3,3 C 94 % 1016,7 hPa 0,0 l/m 0 min 0 min 0,0 UV-I 0 W/m 18,0 km/h (3 Bft)
23.11.2013 06:50 4,3 C 3,3 C 94 % 1016,7 hPa 0,0 l/m 0 min 0 min 0,0 UV-I 0 W/m 10,3 km/h (2 Bft)
23.11.2013 06:52 4,4 C 3,3 C 94 % 1016,7 hPa 0,0 l/m 0 min 0 min 0,0 UV-I 0 W/m 12,9 km/h (3 Bft)
23.11.2013 06:54 4,4 C 3,3 C 94 % 1016,7 hPa 0,0 l/m 0 min 0 min 0,0 UV-I 0 W/m 10,3 km/h (2 Bft)
23.11.2013 06:56 4,3 C 3,3 C 94 % 1016,7 hPa 0,0 l/m 0 min 0 min 0,0 UV-I 0 W/m 7,7 km/h (2 Bft)
23.11.2013 06:58 4,3 C 3,3 C 94 % 1016,7 hPa 0,0 l/m 0 min 0 min 0,0 UV-I 0 W/m 12,9 km/h (3 Bft)
23.11.2013 07:00 4,4 C 3,3 C 94 % 1016,7 hPa 0,0 l/m 0 min 0 min 0,0 UV-I 0 W/m 12,9 km/h (3 Bft)
23.11.2013 07:02 4,4 C 3,3 C 94 % 1016,8 hPa 0,0 l/m 0 min 0 min 0,0 UV-I 0 W/m 7,7 km/h (2 Bft)
23.11.2013 07:04 4,4 C 3,3 C 94 % 1016,8 hPa 0,0 l/m 0 min 0 min 0,0 UV-I 0 W/m 10,3 km/h (2 Bft)
23.11.2013 07:06 4,4 C 3,3 C 94 % 1016,8 hPa 0,0 l/m 0 min 0 min 0,0 UV-I 0 W/m 7,7 km/h (2 Bft)
23.11.2013 07:08 4,4 C 3,3 C 94 % 1016,9 hPa 0,0 l/m 0 min 0 min 0,0 UV-I 0 W/m 18,0 km/h (3 Bft)
23.11.2013 07:10 4,4 C 3,3 C 94 % 1016,8 hPa 0,0 l/m 0 min 0 min 0,0 UV-I 0 W/m 18,0 km/h (3 Bft)
23.11.2013 07:12 4,4 C 3,3 C 94 % 1016,9 hPa 0,0 l/m 0 min 0 min 0,0 UV-I 0 W/m 5,1 km/h (1 Bft)
23.11.2013 07:14 4,4 C 3,3 C 94 % 1016,9 hPa 0,0 l/m 0 min 0 min 0,0 UV-I 0 W/m 7,7 km/h (2 Bft)
23.11.2013 07:16 4,4 C 3,3 C 94 % 1016,9 hPa 0,0 l/m 0 min 0 min 0,0 UV-I 0 W/m 7,7 km/h (2 Bft)
23.11.2013 07:18 4,4 C 3,3 C 94 % 1016,9 hPa 0,0 l/m 0 min 0 min 0,0 UV-I 0 W/m 12,9 km/h (3 Bft)
23.11.2013 07:20 4,4 C 3,3 C 94 % 1016,9 hPa 0,0 l/m 0 min 0 min 0,0 UV-I 0 W/m 12,9 km/h (3 Bft)
23.11.2013 07:22 4,4 C 3,3 C 94 % 1016,9 hPa 0,0 l/m 0 min 0 min 0,0 UV-I 0 W/m 5,1 km/h (1 Bft)
23.11.2013 07:24 4,4 C 3,3 C 94 % 1017,0 hPa 0,0 l/m 0 min 0 min 0,0 UV-I 0 W/m 0,0 km/h (0 Bft)
23.11.2013 07:26 4,4 C 3,3 C 94 % 1017,0 hPa 0,0 l/m 0 min 0 min 0,0 UV-I 0 W/m 7,7 km/h (2 Bft)
23.11.2013 07:28 4,4 C 3,3 C 94 % 1017,0 hPa 0,0 l/m 0 min 0 min 0,0 UV-I 0 W/m 12,9 km/h (3 Bft)
23.11.2013 07:30 4,4 C 3,3 C 94 % 1016,9 hPa 0,0 l/m 0 min 0 min 0,0 UV-I 0 W/m 12,9 km/h (3 Bft)
23.11.2013 07:32 4,4 C 3,3 C 94 % 1017,0 hPa 0,0 l/m 0 min 0 min 0,0 UV-I 0 W/m 12,9 km/h (3 Bft)
23.11.2013 07:34 4,4 C 3,3 C 94 % 1017,0 hPa 0,0 l/m 0 min 0 min 0,0 UV-I 0 W/m 10,3 km/h (2 Bft)
23.11.2013 07:36 4,4 C 3,3 C 94 % 1016,9 hPa 0,0 l/m 0 min 0 min 0,0 UV-I 0 W/m 7,7 km/h (2 Bft)
23.11.2013 07:38 4,4 C 3,3 C 94 % 1017,0 hPa 0,0 l/m 0 min 0 min 0,0 UV-I 0 W/m 2,6 km/h (1 Bft)
23.11.2013 07:40 4,4 C 3,3 C 94 % 1017,0 hPa 0,0 l/m 0 min 0 min 0,0 UV-I 0 W/m 7,7 km/h (2 Bft)
23.11.2013 07:42 4,4 C 3,3 C 94 % 1017,0 hPa 0,0 l/m 0 min 0 min 0,0 UV-I 0 W/m 7,7 km/h (2 Bft)
23.11.2013 07:44 4,4 C 3,3 C 94 % 1017,0 hPa 0,0 l/m 0 min 0 min 0,0 UV-I 0 W/m 15,4 km/h (3 Bft)
23.11.2013 07:46 4,4 C 3,3 C 94 % 1017,0 hPa 0,0 l/m 0 min 0 min 0,0 UV-I 0 W/m 7,7 km/h (2 Bft)
23.11.2013 07:48 4,4 C 3,3 C 94 % 1017,0 hPa 0,0 l/m 0 min 0 min 0,0 UV-I 0 W/m 7,7 km/h (2 Bft)
23.11.2013 07:50 4,4 C 3,3 C 94 % 1017,0 hPa 0,0 l/m 0 min 0 min 0,0 UV-I 0 W/m 10,3 km/h (2 Bft)
23.11.2013 07:52 4,4 C 3,3 C 94 % 1017,0 hPa 0,0 l/m 0 min 0 min 0,0 UV-I 0 W/m 10,3 km/h (2 Bft)
23.11.2013 07:54 4,4 C 3,3 C 94 % 1017,1 hPa 0,0 l/m 0 min 0 min 0,0 UV-I 0 W/m 7,7 km/h (2 Bft)
23.11.2013 07:56 4,4 C 3,3 C 94 % 1017,1 hPa 0,0 l/m 0 min 0 min 0,0 UV-I 0 W/m 12,9 km/h (3 Bft)
23.11.2013 07:58 4,4 C 3,3 C 94 % 1017,1 hPa 0,0 l/m 0 min 0 min 0,0 UV-I 0 W/m 5,1 km/h (1 Bft)
23.11.2013 08:00 4,4 C 3,3 C 94 % 1017,1 hPa 0,0 l/m 0 min 0 min 0,0 UV-I 0 W/m 7,7 km/h (2 Bft)
23.11.2013 08:02 4,4 C 3,3 C 94 % 1017,1 hPa 0,0 l/m 0 min 0 min 0,0 UV-I 0 W/m 10,3 km/h (2 Bft)
23.11.2013 08:04 4,4 C 3,3 C 94 % 1017,1 hPa 0,0 l/m 0 min 0 min 0,0 UV-I 0 W/m 15,4 km/h (3 Bft)
23.11.2013 08:06 4,4 C 3,3 C 95 % 1017,1 hPa 0,0 l/m 0 min 0 min 0,0 UV-I 0 W/m 10,3 km/h (2 Bft)
23.11.2013 08:08 4,4 C 3,3 C 95 % 1017,1 hPa 0,0 l/m 0 min 0 min 0,0 UV-I 0 W/m 10,3 km/h (2 Bft)
23.11.2013 08:10 4,4 C 3,3 C 95 % 1017,2 hPa 0,0 l/m 0 min 0 min 0,0 UV-I 0 W/m 2,6 km/h (1 Bft)
23.11.2013 08:12 4,4 C 3,3 C 95 % 1017,2 hPa 0,0 l/m 0 min 0 min 0,0 UV-I 0 W/m 7,7 km/h (2 Bft)
23.11.2013 08:14 4,4 C 3,3 C 95 % 1017,2 hPa 0,0 l/m 0 min 0 min 0,0 UV-I 0 W/m 10,3 km/h (2 Bft)
23.11.2013 08:16 4,4 C 3,3 C 95 % 1017,2 hPa 0,0 l/m 0 min 0 min 0,0 UV-I 0 W/m 7,7 km/h (2 Bft)
23.11.2013 08:18 4,4 C 3,3 C 95 % 1017,2 hPa 0,0 l/m 0 min 0 min 0,0 UV-I 0 W/m 7,7 km/h (2 Bft)
23.11.2013 08:20 4,4 C 3,3 C 95 % 1017,1 hPa 0,0 l/m 0 min 0 min 0,0 UV-I 5 W/m 7,7 km/h (2 Bft)
23.11.2013 08:22 4,4 C 3,3 C 95 % 1017,2 hPa 0,0 l/m 0 min 0 min 0,0 UV-I 5 W/m 7,7 km/h (2 Bft)
23.11.2013 08:24 4,4 C 3,3 C 95 % 1017,2 hPa 0,0 l/m 0 min 0 min 0,0 UV-I 7 W/m 10,3 km/h (2 Bft)
23.11.2013 08:26 4,4 C 3,3 C 95 % 1017,2 hPa 0,0 l/m 0 min 0 min 0,0 UV-I 5 W/m 10,3 km/h (2 Bft)
23.11.2013 08:28 4,4 C 3,3 C 95 % 1017,3 hPa 0,0 l/m 0 min 0 min 0,0 UV-I 5 W/m 12,9 km/h (3 Bft)
23.11.2013 08:30 4,4 C 3,3 C 95 % 1017,3 hPa 0,0 l/m 0 min 0 min 0,0 UV-I 5 W/m 0,0 km/h (0 Bft)
23.11.2013 08:32 4,4 C 3,3 C 95 % 1017,3 hPa 0,0 l/m 0 min 0 min 0,0 UV-I 7 W/m 7,7 km/h (2 Bft)
23.11.2013 08:34 4,4 C 3,3 C 95 % 1017,3 hPa 0,0 l/m 0 min 0 min 0,0 UV-I 9 W/m 7,7 km/h (2 Bft)
23.11.2013 08:36 4,5 C 3,3 C 95 % 1017,3 hPa 0,0 l/m 0 min 0 min 0,0 UV-I 9 W/m 15,4 km/h (3 Bft)
23.11.2013 08:38 4,4 C 3,3 C 95 % 1017,3 hPa 0,0 l/m 0 min 0 min 0,0 UV-I 7 W/m 10,3 km/h (2 Bft)
23.11.2013 08:40 4,5 C 3,3 C 95 % 1017,4 hPa 0,0 l/m 0 min 0 min 0,0 UV-I 7 W/m 10,3 km/h (2 Bft)
23.11.2013 08:42 4,5 C 3,3 C 95 % 1017,4 hPa 0,0 l/m 0 min 0 min 0,0 UV-I 7 W/m 7,7 km/h (2 Bft)
23.11.2013 08:44 4,5 C 3,3 C 95 % 1017,4 hPa 0,0 l/m 0 min 0 min 0,0 UV-I 9 W/m 12,9 km/h (3 Bft)
23.11.2013 08:46 4,5 C 3,3 C 95 % 1017,4 hPa 0,0 l/m 0 min 0 min 0,0 UV-I 7 W/m 7,7 km/h (2 Bft)
23.11.2013 08:48 4,5 C 3,3 C 95 % 1017,4 hPa 0,0 l/m 0 min 0 min 0,0 UV-I 7 W/m 10,3 km/h (2 Bft)
23.11.2013 08:50 4,5 C 3,3 C 95 % 1017,4 hPa 0,0 l/m 0 min 0 min 0,0 UV-I 7 W/m 12,9 km/h (3 Bft)
23.11.2013 08:52 4,5 C 3,3 C 95 % 1017,4 hPa 0,0 l/m 0 min 0 min 0,0 UV-I 7 W/m 15,4 km/h (3 Bft)
23.11.2013 08:54 4,5 C 3,3 C 95 % 1017,4 hPa 0,0 l/m 0 min 0 min 0,0 UV-I 9 W/m 12,9 km/h (3 Bft)
23.11.2013 08:56 4,5 C 3,3 C 95 % 1017,4 hPa 0,0 l/m 0 min 0 min 0,0 UV-I 11 W/m 7,7 km/h (2 Bft)
23.11.2013 08:58 4,5 C 3,3 C 95 % 1017,5 hPa 0,0 l/m 0 min 0 min 0,0 UV-I 11 W/m 7,7 km/h (2 Bft)
23.11.2013 09:00 4,5 C 3,9 C 95 % 1017,5 hPa 0,0 l/m 0 min 0 min 0,0 UV-I 9 W/m 10,3 km/h (2 Bft)
23.11.2013 09:02 4,5 C 3,9 C 95 % 1017,5 hPa 0,0 l/m 0 min 0 min 0,0 UV-I 7 W/m 0,0 km/h (0 Bft)
23.11.2013 09:04 4,6 C 3,9 C 95 % 1017,6 hPa 0,0 l/m 0 min 0 min 0,0 UV-I 7 W/m 0,0 km/h (0 Bft)
23.11.2013 09:06 4,5 C 3,9 C 95 % 1017,7 hPa 0,0 l/m 0 min 0 min 0,0 UV-I 7 W/m 0,0 km/h (0 Bft)
23.11.2013 09:08 4,6 C 3,9 C 95 % 1017,7 hPa 0,0 l/m 0 min 0 min 0,0 UV-I 7 W/m 2,6 km/h (1 Bft)
23.11.2013 09:10 4,6 C 3,9 C 95 % 1017,7 hPa 0,0 l/m 0 min 0 min 0,0 UV-I 7 W/m 2,6 km/h (1 Bft)
23.11.2013 09:12 4,6 C 3,9 C 95 % 1017,7 hPa 0,0 l/m 0 min 0 min 0,0 UV-I 9 W/m 15,4 km/h (3 Bft)
23.11.2013 09:14 4,6 C 3,9 C 95 % 1017,7 hPa 0,0 l/m 0 min 0 min 0,0 UV-I 11 W/m 10,3 km/h (2 Bft)
23.11.2013 09:16 4,6 C 3,9 C 95 % 1017,7 hPa 0,0 l/m 0 min 0 min 0,0 UV-I 14 W/m 10,3 km/h (2 Bft)
23.11.2013 09:18 4,6 C 3,9 C 95 % 1017,7 hPa 0,0 l/m 0 min 0 min 0,0 UV-I 19 W/m 12,9 km/h (3 Bft)
23.11.2013 09:20 4,6 C 3,9 C 95 % 1017,8 hPa 0,0 l/m 0 min 0 min 0,0 UV-I 19 W/m 10,3 km/h (2 Bft)
23.11.2013 09:22 4,6 C 3,9 C 95 % 1017,9 hPa 0,0 l/m 0 min 0 min 0,0 UV-I 23 W/m 10,3 km/h (2 Bft)
23.11.2013 09:24 4,6 C 3,9 C 95 % 1017,8 hPa 0,0 l/m 0 min 0 min 0,0 UV-I 23 W/m 5,1 km/h (1 Bft)
23.11.2013 09:26 4,6 C 3,9 C 95 % 1017,8 hPa 0,0 l/m 0 min 0 min 0,0 UV-I 19 W/m 7,7 km/h (2 Bft)
23.11.2013 09:28 4,6 C 3,9 C 95 % 1017,8 hPa 0,0 l/m 0 min 0 min 0,0 UV-I 21 W/m 5,1 km/h (1 Bft)
23.11.2013 09:30 4,6 C 3,9 C 95 % 1017,8 hPa 0,0 l/m 0 min 0 min 0,0 UV-I 23 W/m 2,6 km/h (1 Bft)
23.11.2013 09:32 4,7 C 3,9 C 95 % 1017,8 hPa 0,0 l/m 0 min 0 min 0,0 UV-I 26 W/m 12,9 km/h (3 Bft)
23.11.2013 09:34 4,7 C 3,9 C 95 % 1017,8 hPa 0,0 l/m 0 min 0 min 0,0 UV-I 28 W/m 10,3 km/h (2 Bft)
23.11.2013 09:36 4,7 C 3,9 C 95 % 1017,8 hPa 0,0 l/m 0 min 0 min 0,0 UV-I 30 W/m 10,3 km/h (2 Bft)
23.11.2013 09:38 4,7 C 3,9 C 95 % 1018,0 hPa 0,0 l/m 0 min 0 min 0,0 UV-I 28 W/m 12,9 km/h (3 Bft)
23.11.2013 09:40 4,7 C 3,9 C 95 % 1017,9 hPa 0,0 l/m 0 min 0 min 0,0 UV-I 25 W/m 7,7 km/h (2 Bft)
23.11.2013 09:42 4,7 C 3,9 C 95 % 1018,0 hPa 0,0 l/m 0 min 0 min 0,0 UV-I 21 W/m 5,1 km/h (1 Bft)
23.11.2013 09:44 4,7 C 3,9 C 95 % 1017,9 hPa 0,0 l/m 0 min 0 min 0,0 UV-I 18 W/m 10,3 km/h (2 Bft)
23.11.2013 09:46 4,7 C 3,9 C 95 % 1018,0 hPa 0,0 l/m 0 min 0 min 0,0 UV-I 16 W/m 2,6 km/h (1 Bft)
23.11.2013 09:48 4,7 C 3,9 C 95 % 1018,1 hPa 0,0 l/m 0 min 0 min 0,0 UV-I 11 W/m 0,0 km/h (0 Bft)
23.11.2013 09:50 4,7 C 3,9 C 95 % 1018,1 hPa 0,0 l/m 0 min 0 min 0,0 UV-I 14 W/m 5,1 km/h (1 Bft)
23.11.2013 09:52 4,7 C 3,9 C 95 % 1018,1 hPa 0,0 l/m 0 min 0 min 0,0 UV-I 18 W/m 12,9 km/h (3 Bft)
23.11.2013 09:54 4,7 C 3,9 C 95 % 1018,1 hPa 0,0 l/m 0 min 0 min 0,0 UV-I 25 W/m 10,3 km/h (2 Bft)
23.11.2013 09:56 4,7 C 3,9 C 95 % 1018,1 hPa 0,0 l/m 0 min 0 min 0,0 UV-I 26 W/m 10,3 km/h (2 Bft)
23.11.2013 09:58 4,7 C 3,9 C 95 % 1018,2 hPa 0,0 l/m 0 min 0 min 0,0 UV-I 21 W/m 10,3 km/h (2 Bft)
23.11.2013 10:00 4,8 C 3,9 C 95 % 1018,2 hPa 0,0 l/m 0 min 0 min 0,0 UV-I 25 W/m 10,3 km/h (2 Bft)
23.11.2013 10:02 4,8 C 3,9 C 95 % 1018,2 hPa 0,0 l/m 0 min 0 min 0,0 UV-I 19 W/m 10,3 km/h (2 Bft)
23.11.2013 10:04 4,8 C 3,9 C 95 % 1018,3 hPa 0,0 l/m 0 min 0 min 0,0 UV-I 18 W/m 7,7 km/h (2 Bft)
23.11.2013 10:06 4,8 C 3,9 C 95 % 1018,3 hPa 0,0 l/m 0 min 0 min 0,0 UV-I 21 W/m 10,3 km/h (2 Bft)
23.11.2013 10:08 4,8 C 3,9 C 95 % 1018,4 hPa 0,0 l/m 0 min 0 min 0,0 UV-I 25 W/m 10,3 km/h (2 Bft)
23.11.2013 10:10 4,8 C 3,9 C 95 % 1018,4 hPa 0,0 l/m 0 min 0 min 0,0 UV-I 32 W/m 0,0 km/h (0 Bft)
23.11.2013 10:12 4,8 C 3,9 C 95 % 1018,4 hPa 0,0 l/m 0 min 0 min 0,0 UV-I 33 W/m 2,6 km/h (1 Bft)
23.11.2013 10:14 4,8 C 3,9 C 95 % 1018,4 hPa 0,0 l/m 0 min 0 min 0,0 UV-I 35 W/m 7,7 km/h (2 Bft)
23.11.2013 10:16 4,8 C 3,9 C 95 % 1018,4 hPa 0,0 l/m 0 min 0 min 0,0 UV-I 39 W/m 10,3 km/h (2 Bft)
23.11.2013 10:18 4,8 C 3,9 C 95 % 1018,3 hPa 0,0 l/m 0 min 0 min 0,0 UV-I 39 W/m 10,3 km/h (2 Bft)
23.11.2013 10:20 4,8 C 3,9 C 95 % 1018,3 hPa 0,0 l/m 0 min 0 min 0,0 UV-I 35 W/m 10,3 km/h (2 Bft)
23.11.2013 10:22 4,9 C 3,9 C 95 % 1018,3 hPa 0,0 l/m 0 min 0 min 0,0 UV-I 37 W/m 5,1 km/h (1 Bft)
23.11.2013 10:24 4,9 C 3,9 C 95 % 1018,4 hPa 0,0 l/m 0 min 0 min 0,0 UV-I 37 W/m 5,1 km/h (1 Bft)
23.11.2013 10:26 4,9 C 3,9 C 95 % 1018,4 hPa 0,0 l/m 0 min 0 min 0,0 UV-I 37 W/m 7,7 km/h (2 Bft)
23.11.2013 10:28 4,9 C 4,4 C 95 % 1018,4 hPa 0,0 l/m 0 min 0 min 0,0 UV-I 37 W/m 12,9 km/h (3 Bft)
23.11.2013 10:30 4,9 C 4,4 C 95 % 1018,4 hPa 0,0 l/m 0 min 0 min 0,0 UV-I 39 W/m 15,4 km/h (3 Bft)
23.11.2013 10:32 4,9 C 4,4 C 95 % 1018,4 hPa 0,0 l/m 0 min 0 min 0,0 UV-I 42 W/m 10,3 km/h (2 Bft)
23.11.2013 10:34 4,9 C 4,4 C 95 % 1018,5 hPa 0,0 l/m 0 min 0 min 0,0 UV-I 40 W/m 15,4 km/h (3 Bft)
23.11.2013 10:36 5,0 C 4,4 C 95 % 1018,5 hPa 0,0 l/m 0 min 0 min 0,0 UV-I 42 W/m 7,7 km/h (2 Bft)
23.11.2013 10:38 5,0 C 4,4 C 95 % 1018,5 hPa 0,0 l/m 0 min 0 min 0,0 UV-I 44 W/m 7,7 km/h (2 Bft)
23.11.2013 10:40 5,0 C 4,4 C 95 % 1018,5 hPa 0,0 l/m 0 min 0 min 0,0 UV-I 46 W/m 10,3 km/h (2 Bft)
23.11.2013 10:42 5,0 C 4,4 C 95 % 1018,5 hPa 0,0 l/m 0 min 0 min 0,0 UV-I 39 W/m 7,7 km/h (2 Bft)
23.11.2013 10:44 5,0 C 4,4 C 95 % 1018,5 hPa 0,0 l/m 0 min 0 min 0,0 UV-I 46 W/m 10,3 km/h (2 Bft)
23.11.2013 10:46 5,1 C 4,4 C 95 % 1018,5 hPa 0,0 l/m 0 min 0 min 0,0 UV-I 44 W/m 10,3 km/h (2 Bft)
23.11.2013 10:48 5,1 C 4,4 C 95 % 1018,5 hPa 0,0 l/m 0 min 0 min 0,0 UV-I 40 W/m 10,3 km/h (2 Bft)
23.11.2013 10:50 5,1 C 4,4 C 95 % 1018,4 hPa 0,0 l/m 0 min 0 min 0,0 UV-I 33 W/m 12,9 km/h (3 Bft)
23.11.2013 10:52 5,1 C 4,4 C 95 % 1018,5 hPa 0,0 l/m 0 min 0 min 0,0 UV-I 28 W/m 12,9 km/h (3 Bft)
23.11.2013 10:54 5,1 C 4,4 C 95 % 1018,5 hPa 0,0 l/m 0 min 0 min 0,0 UV-I 30 W/m 15,4 km/h (3 Bft)
23.11.2013 10:56 5,1 C 4,4 C 95 % 1018,5 hPa 0,0 l/m 0 min 0 min 0,0 UV-I 32 W/m 12,9 km/h (3 Bft)
23.11.2013 10:58 5,1 C 4,4 C 95 % 1018,5 hPa 0,0 l/m 0 min 0 min 0,0 UV-I 33 W/m 15,4 km/h (3 Bft)
23.11.2013 11:00 5,1 C 4,4 C 95 % 1018,5 hPa 0,0 l/m 0 min 0 min 0,0 UV-I 33 W/m 15,4 km/h (3 Bft)
23.11.2013 11:02 5,1 C 4,4 C 95 % 1018,4 hPa 0,0 l/m 0 min 0 min 0,0 UV-I 37 W/m 7,7 km/h (2 Bft)
23.11.2013 11:04 5,1 C 4,4 C 95 % 1018,4 hPa 0,0 l/m 0 min 0 min 0,0 UV-I 39 W/m 10,3 km/h (2 Bft)
23.11.2013 11:06 5,2 C 4,4 C 95 % 1018,4 hPa 0,0 l/m 0 min 0 min 0,0 UV-I 40 W/m 5,1 km/h (1 Bft)
23.11.2013 11:08 5,2 C 4,4 C 95 % 1018,4 hPa 0,0 l/m 0 min 0 min 0,0 UV-I 42 W/m 12,9 km/h (3 Bft)
23.11.2013 11:10 5,2 C 4,4 C 95 % 1018,4 hPa 0,0 l/m 0 min 0 min 0,0 UV-I 42 W/m 15,4 km/h (3 Bft)
23.11.2013 11:12 5,2 C 4,4 C 95 % 1018,4 hPa 0,0 l/m 0 min 0 min 0,0 UV-I 44 W/m 5,1 km/h (1 Bft)
23.11.2013 11:14 5,2 C 4,4 C 95 % 1018,4 hPa 0,0 l/m 0 min 0 min 0,0 UV-I 46 W/m 7,7 km/h (2 Bft)
23.11.2013 11:16 5,2 C 4,4 C 95 % 1018,5 hPa 0,0 l/m 0 min 0 min 0,0 UV-I 51 W/m 10,3 km/h (2 Bft)
23.11.2013 11:18 5,2 C 4,4 C 95 % 1018,4 hPa 0,0 l/m 0 min 0 min 0,0 UV-I 65 W/m 15,4 km/h (3 Bft)
23.11.2013 11:20 5,2 C 4,4 C 95 % 1018,4 hPa 0,0 l/m 0 min 0 min 0,0 UV-I 63 W/m 12,9 km/h (3 Bft)
23.11.2013 11:22 5,3 C 4,4 C 95 % 1018,4 hPa 0,0 l/m 0 min 0 min 0,0 UV-I 65 W/m 12,9 km/h (3 Bft)
23.11.2013 11:24 5,3 C 4,4 C 95 % 1018,4 hPa 0,0 l/m 0 min 0 min 0,0 UV-I 69 W/m 10,3 km/h (2 Bft)
23.11.2013 11:26 5,3 C 4,4 C 95 % 1018,4 hPa 0,0 l/m 0 min 0 min 0,0 UV-I 62 W/m 12,9 km/h (3 Bft)
23.11.2013 11:28 5,3 C 4,4 C 95 % 1018,4 hPa 0,0 l/m 0 min 0 min 0,0 UV-I 60 W/m 10,3 km/h (2 Bft)
23.11.2013 11:30 5,3 C 4,4 C 95 % 1018,4 hPa 0,0 l/m 0 min 0 min 0,0 UV-I 69 W/m 7,7 km/h (2 Bft)
23.11.2013 11:32 5,3 C 4,4 C 95 % 1018,4 hPa 0,0 l/m 0 min 0 min 0,0 UV-I 62 W/m 18,0 km/h (3 Bft)
23.11.2013 11:34 5,4 C 4,4 C 95 % 1018,4 hPa 0,0 l/m 0 min 0 min 0,0 UV-I 46 W/m 12,9 km/h (3 Bft)
23.11.2013 11:36 5,4 C 4,4 C 95 % 1018,4 hPa 0,0 l/m 0 min 0 min 0,0 UV-I 40 W/m 10,3 km/h (2 Bft)
23.11.2013 11:38 5,4 C 4,4 C 95 % 1018,5 hPa 0,0 l/m 0 min 0 min 0,0 UV-I 42 W/m 12,9 km/h (3 Bft)
23.11.2013 11:40 5,4 C 4,4 C 95 % 1018,4 hPa 0,0 l/m 0 min 0 min 0,0 UV-I 40 W/m 10,3 km/h (2 Bft)
23.11.2013 11:42 5,4 C 4,4 C 95 % 1018,4 hPa 0,0 l/m 0 min 0 min 0,0 UV-I 44 W/m 15,4 km/h (3 Bft)
23.11.2013 11:44 5,4 C 4,4 C 95 % 1018,4 hPa 0,0 l/m 0 min 0 min 0,0 UV-I 37 W/m 5,1 km/h (1 Bft)
23.11.2013 11:46 5,4 C 4,4 C 95 % 1018,4 hPa 0,0 l/m 0 min 0 min 0,0 UV-I 33 W/m 7,7 km/h (2 Bft)
23.11.2013 11:48 5,4 C 4,4 C 95 % 1018,4 hPa 0,0 l/m 0 min 0 min 0,0 UV-I 39 W/m 15,4 km/h (3 Bft)
23.11.2013 11:50 5,4 C 4,4 C 95 % 1018,4 hPa 0,0 l/m 0 min 0 min 0,0 UV-I 44 W/m 10,3 km/h (2 Bft)
23.11.2013 11:52 5,4 C 4,4 C 95 % 1018,3 hPa 0,0 l/m 0 min 0 min 0,0 UV-I 46 W/m 12,9 km/h (3 Bft)
23.11.2013 11:54 5,4 C 4,4 C 95 % 1018,3 hPa 0,0 l/m 0 min 0 min 0,0 UV-I 44 W/m 10,3 km/h (2 Bft)
23.11.2013 11:56 5,4 C 4,4 C 95 % 1018,3 hPa 0,0 l/m 0 min 0 min 0,0 UV-I 40 W/m 10,3 km/h (2 Bft)
23.11.2013 11:58 5,4 C 4,4 C 95 % 1018,3 hPa 0,0 l/m 0 min 0 min 0,0 UV-I 42 W/m 5,1 km/h (1 Bft)
23.11.2013 12:00 5,4 C 4,4 C 94 % 1018,3 hPa 0,0 l/m 0 min 0 min 0,0 UV-I 42 W/m 18,0 km/h (3 Bft)
23.11.2013 12:02 5,5 C 4,4 C 94 % 1018,3 hPa 0,0 l/m 0 min 0 min 0,0 UV-I 54 W/m 12,9 km/h (3 Bft)
23.11.2013 12:04 5,5 C 4,4 C 94 % 1018,4 hPa 0,0 l/m 0 min 0 min 0,0 UV-I 62 W/m 12,9 km/h (3 Bft)
23.11.2013 12:06 5,5 C 5,0 C 94 % 1018,3 hPa 0,0 l/m 0 min 0 min 0,0 UV-I 63 W/m 10,3 km/h (2 Bft)
23.11.2013 12:08 5,5 C 5,0 C 94 % 1018,3 hPa 0,0 l/m 0 min 0 min 0,0 UV-I 72 W/m 12,9 km/h (3 Bft)
23.11.2013 12:10 5,5 C 5,0 C 94 % 1018,4 hPa 0,0 l/m 0 min 0 min 0,0 UV-I 51 W/m 15,4 km/h (3 Bft)
23.11.2013 12:12 5,6 C 5,0 C 94 % 1018,4 hPa 0,0 l/m 0 min 0 min 0,0 UV-I 51 W/m 12,9 km/h (3 Bft)
23.11.2013 12:14 5,6 C 5,0 C 94 % 1018,4 hPa 0,0 l/m 0 min 0 min 0,0 UV-I 49 W/m 15,4 km/h (3 Bft)
23.11.2013 12:16 5,6 C 5,0 C 94 % 1018,3 hPa 0,0 l/m 0 min 0 min 0,0 UV-I 49 W/m 18,0 km/h (3 Bft)
23.11.2013 12:18 5,6 C 5,0 C 94 % 1018,3 hPa 0,0 l/m 0 min 0 min 0,0 UV-I 54 W/m 18,0 km/h (3 Bft)
23.11.2013 12:20 5,6 C 5,0 C 94 % 1018,3 hPa 0,0 l/m 0 min 0 min 0,0 UV-I 60 W/m 18,0 km/h (3 Bft)
23.11.2013 12:22 5,6 C 5,0 C 94 % 1018,3 hPa 0,0 l/m 0 min 0 min 0,0 UV-I 63 W/m 15,4 km/h (3 Bft)
23.11.2013 12:24 5,6 C 5,0 C 94 % 1018,3 hPa 0,0 l/m 0 min 0 min 0,0 UV-I 56 W/m 12,9 km/h (3 Bft)
23.11.2013 12:26 5,6 C 5,0 C 94 % 1018,3 hPa 0,0 l/m 0 min 0 min 0,0 UV-I 63 W/m 10,3 km/h (2 Bft)
23.11.2013 12:28 5,6 C 5,0 C 94 % 1018,3 hPa 0,0 l/m 0 min 0 min 0,0 UV-I 62 W/m 10,3 km/h (2 Bft)
23.11.2013 12:30 5,7 C 5,0 C 94 % 1018,3 hPa 0,0 l/m 0 min 0 min 0,0 UV-I 67 W/m 12,9 km/h (3 Bft)
23.11.2013 12:32 5,7 C 5,0 C 94 % 1018,3 hPa 0,0 l/m 0 min 0 min 0,0 UV-I 60 W/m 12,9 km/h (3 Bft)
23.11.2013 12:34 5,7 C 5,0 C 94 % 1018,3 hPa 0,0 l/m 0 min 0 min 0,0 UV-I 60 W/m 7,7 km/h (2 Bft)
23.11.2013 12:36 5,7 C 5,0 C 94 % 1018,4 hPa 0,0 l/m 0 min 0 min 0,0 UV-I 54 W/m 10,3 km/h (2 Bft)
23.11.2013 12:38 5,7 C 5,0 C 94 % 1018,3 hPa 0,0 l/m 0 min 0 min 0,0 UV-I 63 W/m 12,9 km/h (3 Bft)
23.11.2013 12:40 5,7 C 5,0 C 94 % 1018,4 hPa 0,0 l/m 0 min 0 min 0,0 UV-I 47 W/m 10,3 km/h (2 Bft)
23.11.2013 12:42 5,7 C 5,0 C 94 % 1018,5 hPa 0,0 l/m 0 min 0 min 0,0 UV-I 42 W/m 7,7 km/h (2 Bft)
23.11.2013 12:44 5,7 C 5,0 C 94 % 1018,5 hPa 0,0 l/m 0 min 0 min 0,0 UV-I 44 W/m 7,7 km/h (2 Bft)
23.11.2013 12:46 5,7 C 5,0 C 94 % 1018,5 hPa 0,0 l/m 0 min 0 min 0,0 UV-I 46 W/m 0,0 km/h (0 Bft)
23.11.2013 12:48 5,7 C 5,0 C 94 % 1018,5 hPa 0,0 l/m 0 min 0 min 0,0 UV-I 46 W/m 5,1 km/h (1 Bft)
23.11.2013 12:50 5,7 C 5,0 C 94 % 1018,6 hPa 0,0 l/m 0 min 0 min 0,0 UV-I 35 W/m 10,3 km/h (2 Bft)
23.11.2013 12:52 5,8 C 5,0 C 94 % 1018,6 hPa 0,0 l/m 0 min 0 min 0,0 UV-I 35 W/m 10,3 km/h (2 Bft)
23.11.2013 12:54 5,8 C 5,0 C 94 % 1018,6 hPa 0,0 l/m 0 min 0 min 0,0 UV-I 42 W/m 12,9 km/h (3 Bft)
23.11.2013 12:56 5,8 C 5,0 C 94 % 1018,6 hPa 0,0 l/m 0 min 0 min 0,0 UV-I 62 W/m 10,3 km/h (2 Bft)
23.11.2013 12:58 5,8 C 5,0 C 94 % 1018,6 hPa 0,0 l/m 0 min 0 min 0,0 UV-I 77 W/m 0,0 km/h (0 Bft)
23.11.2013 13:00 5,8 C 5,0 C 94 % 1018,6 hPa 0,0 l/m 0 min 0 min 0,0 UV-I 58 W/m 7,7 km/h (2 Bft)
23.11.2013 13:02 5,8 C 5,0 C 94 % 1018,6 hPa 0,0 l/m 0 min 0 min 0,0 UV-I 58 W/m 12,9 km/h (3 Bft)
23.11.2013 13:04 5,8 C 5,0 C 94 % 1018,6 hPa 0,0 l/m 0 min 0 min 0,0 UV-I 49 W/m 10,3 km/h (2 Bft)
23.11.2013 13:06 5,8 C 5,0 C 94 % 1018,6 hPa 0,0 l/m 0 min 0 min 0,0 UV-I 49 W/m 10,3 km/h (2 Bft)
23.11.2013 13:08 5,8 C 5,0 C 94 % 1018,7 hPa 0,0 l/m 0 min 0 min 0,0 UV-I 49 W/m 12,9 km/h (3 Bft)
23.11.2013 13:10 5,8 C 5,0 C 94 % 1018,6 hPa 0,0 l/m 0 min 0 min 0,0 UV-I 46 W/m 5,1 km/h (1 Bft)
23.11.2013 13:12 5,8 C 5,0 C 94 % 1018,6 hPa 0,0 l/m 0 min 0 min 0,0 UV-I 39 W/m 2,6 km/h (1 Bft)
23.11.2013 13:14 5,8 C 5,0 C 94 % 1018,6 hPa 0,0 l/m 0 min 0 min 0,0 UV-I 44 W/m 10,3 km/h (2 Bft)
23.11.2013 13:16 5,8 C 5,0 C 94 % 1018,6 hPa 0,0 l/m 0 min 0 min 0,0 UV-I 40 W/m 10,3 km/h (2 Bft)
23.11.2013 13:18 5,8 C 5,0 C 94 % 1018,6 hPa 0,0 l/m 0 min 0 min 0,0 UV-I 44 W/m 2,6 km/h (1 Bft)
23.11.2013 13:20 5,8 C 5,0 C 94 % 1018,6 hPa 0,0 l/m 0 min 0 min 0,0 UV-I 51 W/m 10,3 km/h (2 Bft)
23.11.2013 13:22 5,8 C 5,0 C 94 % 1018,6 hPa 0,0 l/m 0 min 0 min 0,0 UV-I 49 W/m 7,7 km/h (2 Bft)
23.11.2013 13:24 5,8 C 5,0 C 94 % 1018,6 hPa 0,0 l/m 0 min 0 min 0,0 UV-I 40 W/m 7,7 km/h (2 Bft)
23.11.2013 13:26 5,9 C 5,0 C 94 % 1018,6 hPa 0,0 l/m 0 min 0 min 0,0 UV-I 42 W/m 10,3 km/h (2 Bft)
23.11.2013 13:28 5,9 C 5,0 C 94 % 1018,6 hPa 0,0 l/m 0 min 0 min 0,0 UV-I 40 W/m 12,9 km/h (3 Bft)
23.11.2013 13:30 5,9 C 5,0 C 93 % 1018,6 hPa 0,0 l/m 0 min 0 min 0,0 UV-I 39 W/m 15,4 km/h (3 Bft)
23.11.2013 13:32 5,9 C 5,0 C 93 % 1018,6 hPa 0,0 l/m 0 min 0 min 0,0 UV-I 33 W/m 12,9 km/h (3 Bft)
23.11.2013 13:34 5,9 C 5,0 C 93 % 1018,6 hPa 0,0 l/m 0 min 0 min 0,0 UV-I 33 W/m 7,7 km/h (2 Bft)
23.11.2013 13:36 5,9 C 5,0 C 93 % 1018,6 hPa 0,0 l/m 0 min 0 min 0,0 UV-I 30 W/m 12,9 km/h (3 Bft)
23.11.2013 13:38 5,9 C 5,0 C 93 % 1018,6 hPa 0,0 l/m 0 min 0 min 0,0 UV-I 32 W/m 7,7 km/h (2 Bft)
23.11.2013 13:40 5,9 C 5,0 C 93 % 1018,6 hPa 0,0 l/m 0 min 0 min 0,0 UV-I 30 W/m 15,4 km/h (3 Bft)
23.11.2013 13:42 5,9 C 5,0 C 93 % 1018,6 hPa 0,0 l/m 0 min 0 min 0,0 UV-I 33 W/m 5,1 km/h (1 Bft)
23.11.2013 13:44 5,9 C 5,0 C 93 % 1018,6 hPa 0,0 l/m 0 min 0 min 0,0 UV-I 37 W/m 5,1 km/h (1 Bft)
23.11.2013 13:46 5,9 C 5,0 C 93 % 1018,7 hPa 0,0 l/m 0 min 0 min 0,0 UV-I 35 W/m 7,7 km/h (2 Bft)
23.11.2013 13:48 5,9 C 5,0 C 93 % 1018,6 hPa 0,0 l/m 0 min 0 min 0,0 UV-I 33 W/m 10,3 km/h (2 Bft)
23.11.2013 13:50 5,9 C 5,0 C 93 % 1018,7 hPa 0,0 l/m 0 min 0 min 0,0 UV-I 33 W/m 15,4 km/h (3 Bft)
23.11.2013 13:52 5,9 C 5,0 C 93 % 1018,7 hPa 0,0 l/m 0 min 0 min 0,0 UV-I 35 W/m 15,4 km/h (3 Bft)
23.11.2013 13:54 5,9 C 5,0 C 93 % 1018,7 hPa 0,0 l/m 0 min 0 min 0,0 UV-I 35 W/m 10,3 km/h (2 Bft)
23.11.2013 13:56 5,9 C 5,0 C 93 % 1018,7 hPa 0,0 l/m 0 min 0 min 0,0 UV-I 39 W/m 12,9 km/h (3 Bft)
23.11.2013 13:58 5,9 C 5,0 C 93 % 1018,7 hPa 0,0 l/m 0 min 0 min 0,0 UV-I 44 W/m 12,9 km/h (3 Bft)
23.11.2013 14:00 5,9 C 5,0 C 93 % 1018,6 hPa 0,0 l/m 0 min 0 min 0,0 UV-I 30 W/m 12,9 km/h (3 Bft)
23.11.2013 14:02 5,9 C 5,0 C 93 % 1018,7 hPa 0,0 l/m 0 min 0 min 0,0 UV-I 25 W/m 12,9 km/h (3 Bft)
23.11.2013 14:04 5,9 C 5,0 C 93 % 1018,6 hPa 0,0 l/m 0 min 0 min 0,0 UV-I 35 W/m 15,4 km/h (3 Bft)
23.11.2013 14:06 5,9 C 5,0 C 93 % 1018,6 hPa 0,0 l/m 0 min 0 min 0,0 UV-I 40 W/m 5,1 km/h (1 Bft)
23.11.2013 14:08 5,9 C 5,0 C 93 % 1018,6 hPa 0,0 l/m 0 min 0 min 0,0 UV-I 37 W/m 5,1 km/h (1 Bft)
23.11.2013 14:10 5,9 C 5,0 C 93 % 1018,6 hPa 0,0 l/m 0 min 0 min 0,0 UV-I 30 W/m 20,6 km/h (4 Bft)
23.11.2013 14:12 5,9 C 5,0 C 93 % 1018,5 hPa 0,0 l/m 0 min 0 min 0,0 UV-I 26 W/m 15,4 km/h (3 Bft)
23.11.2013 14:14 5,9 C 5,0 C 93 % 1018,6 hPa 0,0 l/m 0 min 0 min 0,0 UV-I 26 W/m 7,7 km/h (2 Bft)
23.11.2013 14:16 5,9 C 5,0 C 93 % 1018,5 hPa 0,0 l/m 0 min 0 min 0,0 UV-I 28 W/m 5,1 km/h (1 Bft)
23.11.2013 14:18 5,9 C 5,0 C 93 % 1018,6 hPa 0,0 l/m 0 min 0 min 0,0 UV-I 33 W/m 7,7 km/h (2 Bft)
23.11.2013 14:20 5,9 C 5,0 C 93 % 1018,5 hPa 0,0 l/m 0 min 0 min 0,0 UV-I 40 W/m 0,0 km/h (0 Bft)
23.11.2013 14:22 5,9 C 5,0 C 93 % 1018,6 hPa 0,0 l/m 0 min 0 min 0,0 UV-I 37 W/m 10,3 km/h (2 Bft)
23.11.2013 14:24 5,9 C 5,0 C 93 % 1018,6 hPa 0,0 l/m 0 min 0 min 0,0 UV-I 26 W/m 12,9 km/h (3 Bft)
23.11.2013 14:26 5,9 C 5,0 C 93 % 1018,6 hPa 0,0 l/m 0 min 0 min 0,0 UV-I 28 W/m 12,9 km/h (3 Bft)
23.11.2013 14:28 5,9 C 5,0 C 93 % 1018,6 hPa 0,0 l/m 0 min 0 min 0,0 UV-I 25 W/m 10,3 km/h (2 Bft)
23.11.2013 14:30 5,9 C 5,0 C 93 % 1018,5 hPa 0,0 l/m 0 min 0 min 0,0 UV-I 23 W/m 10,3 km/h (2 Bft)
23.11.2013 14:32 5,9 C 5,0 C 93 % 1018,6 hPa 0,0 l/m 0 min 0 min 0,0 UV-I 28 W/m 5,1 km/h (1 Bft)
23.11.2013 14:34 5,9 C 5,0 C 93 % 1018,6 hPa 0,0 l/m 0 min 0 min 0,0 UV-I 33 W/m 12,9 km/h (3 Bft)
23.11.2013 14:36 5,9 C 5,0 C 93 % 1018,6 hPa 0,0 l/m 0 min 0 min 0,0 UV-I 32 W/m 15,4 km/h (3 Bft)
23.11.2013 14:38 5,9 C 5,0 C 93 % 1018,5 hPa 0,0 l/m 0 min 0 min 0,0 UV-I 30 W/m 10,3 km/h (2 Bft)
23.11.2013 14:40 5,9 C 5,0 C 93 % 1018,5 hPa 0,0 l/m 0 min 0 min 0,0 UV-I 30 W/m 7,7 km/h (2 Bft)
23.11.2013 14:42 5,9 C 5,0 C 93 % 1018,5 hPa 0,0 l/m 0 min 0 min 0,0 UV-I 32 W/m 12,9 km/h (3 Bft)
23.11.2013 14:44 5,9 C 5,0 C 93 % 1018,5 hPa 0,0 l/m 0 min 0 min 0,0 UV-I 37 W/m 7,7 km/h (2 Bft)
23.11.2013 14:46 5,9 C 5,0 C 93 % 1018,6 hPa 0,0 l/m 0 min 0 min 0,0 UV-I 42 W/m 10,3 km/h (2 Bft)
23.11.2013 14:48 5,9 C 5,0 C 93 % 1018,5 hPa 0,0 l/m 0 min 0 min 0,0 UV-I 32 W/m 7,7 km/h (2 Bft)
23.11.2013 14:50 5,9 C 5,0 C 93 % 1018,5 hPa 0,0 l/m 0 min 0 min 0,0 UV-I 32 W/m 10,3 km/h (2 Bft)
23.11.2013 14:52 5,9 C 5,0 C 93 % 1018,5 hPa 0,0 l/m 0 min 0 min 0,0 UV-I 37 W/m 7,7 km/h (2 Bft)
23.11.2013 14:54 5,9 C 5,0 C 93 % 1018,6 hPa 0,0 l/m 0 min 0 min 0,0 UV-I 32 W/m 10,3 km/h (2 Bft)
23.11.2013 14:56 5,9 C 5,0 C 93 % 1018,6 hPa 0,0 l/m 0 min 0 min 0,0 UV-I 26 W/m 18,0 km/h (3 Bft)
23.11.2013 14:58 6,0 C 5,0 C 93 % 1018,5 hPa 0,0 l/m 0 min 0 min 0,0 UV-I 25 W/m 15,4 km/h (3 Bft)
23.11.2013 15:00 5,9 C 5,0 C 93 % 1018,5 hPa 0,0 l/m 0 min 0 min 0,0 UV-I 30 W/m 18,0 km/h (3 Bft)
23.11.2013 15:02 5,9 C 5,0 C 93 % 1018,5 hPa 0,0 l/m 0 min 0 min 0,0 UV-I 33 W/m 18,0 km/h (3 Bft)
23.11.2013 15:04 5,9 C 5,0 C 93 % 1018,5 hPa 0,0 l/m 0 min 0 min 0,0 UV-I 25 W/m 15,4 km/h (3 Bft)
23.11.2013 15:06 5,9 C 5,0 C 93 % 1018,5 hPa 0,0 l/m 0 min 0 min 0,0 UV-I 25 W/m 10,3 km/h (2 Bft)
23.11.2013 15:08 6,0 C 5,0 C 93 % 1018,5 hPa 0,0 l/m 0 min 0 min 0,0 UV-I 23 W/m 10,3 km/h (2 Bft)
23.11.2013 15:10 6,0 C 5,0 C 93 % 1018,6 hPa 0,0 l/m 0 min 0 min 0,0 UV-I 21 W/m 10,3 km/h (2 Bft)
23.11.2013 15:12 6,0 C 5,0 C 93 % 1018,6 hPa 0,0 l/m 0 min 0 min 0,0 UV-I 21 W/m 2,6 km/h (1 Bft)
23.11.2013 15:14 6,0 C 5,0 C 93 % 1018,6 hPa 0,0 l/m 0 min 0 min 0,0 UV-I 19 W/m 7,7 km/h (2 Bft)
23.11.2013 15:16 6,0 C 5,0 C 93 % 1018,7 hPa 0,0 l/m 0 min 0 min 0,0 UV-I 19 W/m 10,3 km/h (2 Bft)
23.11.2013 15:18 6,0 C 5,0 C 93 % 1018,7 hPa 0,0 l/m 0 min 0 min 0,0 UV-I 16 W/m 15,4 km/h (3 Bft)
23.11.2013 15:20 6,0 C 5,0 C 93 % 1018,7 hPa 0,0 l/m 0 min 0 min 0,0 UV-I 16 W/m 7,7 km/h (2 Bft)
23.11.2013 15:22 6,0 C 5,0 C 93 % 1018,7 hPa 0,0 l/m 0 min 0 min 0,0 UV-I 14 W/m 12,9 km/h (3 Bft)
23.11.2013 15:24 6,0 C 5,0 C 93 % 1018,7 hPa 0,0 l/m 0 min 0 min 0,0 UV-I 14 W/m 12,9 km/h (3 Bft)
23.11.2013 15:26 6,0 C 5,0 C 93 % 1018,8 hPa 0,0 l/m 0 min 0 min 0,0 UV-I 14 W/m 7,7 km/h (2 Bft)
23.11.2013 15:28 6,0 C 5,0 C 93 % 1018,8 hPa 0,0 l/m 0 min 0 min 0,0 UV-I 12 W/m 7,7 km/h (2 Bft)
23.11.2013 15:30 6,0 C 5,0 C 93 % 1018,8 hPa 0,0 l/m 0 min 0 min 0,0 UV-I 16 W/m 12,9 km/h (3 Bft)
23.11.2013 15:32 6,0 C 5,0 C 93 % 1018,8 hPa 0,0 l/m 0 min 0 min 0,0 UV-I 14 W/m 10,3 km/h (2 Bft)
23.11.2013 15:34 6,0 C 5,0 C 93 % 1018,7 hPa 0,0 l/m 0 min 0 min 0,0 UV-I 16 W/m 7,7 km/h (2 Bft)
23.11.2013 15:36 6,0 C 5,0 C 93 % 1018,7 hPa 0,0 l/m 0 min 0 min 0,0 UV-I 18 W/m 7,7 km/h (2 Bft)
23.11.2013 15:38 6,0 C 5,0 C 93 % 1018,7 hPa 0,0 l/m 0 min 0 min 0,0 UV-I 14 W/m 10,3 km/h (2 Bft)
23.11.2013 15:40 6,0 C 5,0 C 93 % 1018,7 hPa 0,0 l/m 0 min 0 min 0,0 UV-I 16 W/m 10,3 km/h (2 Bft)
23.11.2013 15:42 6,0 C 5,0 C 93 % 1018,7 hPa 0,0 l/m 0 min 0 min 0,0 UV-I 25 W/m 12,9 km/h (3 Bft)
23.11.2013 15:44 6,0 C 5,0 C 93 % 1018,7 hPa 0,0 l/m 0 min 0 min 0,0 UV-I 32 W/m 12,9 km/h (3 Bft)
23.11.2013 15:46 6,0 C 5,0 C 93 % 1018,7 hPa 0,0 l/m 0 min 0 min 0,0 UV-I 37 W/m 10,3 km/h (2 Bft)
23.11.2013 15:48 6,0 C 5,0 C 93 % 1018,7 hPa 0,0 l/m 0 min 0 min 0,0 UV-I 42 W/m 7,7 km/h (2 Bft)
23.11.2013 15:50 6,0 C 5,0 C 93 % 1018,7 hPa 0,0 l/m 0 min 0 min 0,0 UV-I 46 W/m 5,1 km/h (1 Bft)
23.11.2013 15:52 6,0 C 5,0 C 93 % 1018,7 hPa 0,0 l/m 2 min 0 min 0,0 UV-I 49 W/m 2,6 km/h (1 Bft)
23.11.2013 15:54 6,0 C 5,0 C 93 % 1018,7 hPa 0,0 l/m 2 min 0 min 0,0 UV-I 51 W/m 7,7 km/h (2 Bft)
23.11.2013 15:56 6,1 C 5,0 C 93 % 1018,7 hPa 0,0 l/m 0 min 0 min 0,0 UV-I 35 W/m 7,7 km/h (2 Bft)
23.11.2013 15:58 6,1 C 5,0 C 93 % 1018,7 hPa 0,0 l/m 0 min 0 min 0,0 UV-I 26 W/m 7,7 km/h (2 Bft)
23.11.2013 16:00 6,1 C 5,0 C 93 % 1018,7 hPa 0,0 l/m 0 min 0 min 0,0 UV-I 23 W/m 0,0 km/h (0 Bft)
23.11.2013 16:02 6,1 C 5,0 C 93 % 1018,8 hPa 0,0 l/m 0 min 0 min 0,0 UV-I 21 W/m 2,6 km/h (1 Bft)
23.11.2013 16:04 6,1 C 5,0 C 93 % 1018,7 hPa 0,0 l/m 0 min 0 min 0,0 UV-I 19 W/m 0,0 km/h (0 Bft)
23.11.2013 16:06 6,1 C 5,0 C 93 % 1018,7 hPa 0,0 l/m 0 min 0 min 0,0 UV-I 16 W/m 5,1 km/h (1 Bft)
23.11.2013 16:08 6,1 C 5,0 C 93 % 1018,7 hPa 0,0 l/m 0 min 0 min 0,0 UV-I 12 W/m 5,1 km/h (1 Bft)
23.11.2013 16:10 6,1 C 5,0 C 93 % 1018,7 hPa 0,0 l/m 0 min 0 min 0,0 UV-I 12 W/m 2,6 km/h (1 Bft)
23.11.2013 16:12 6,1 C 5,0 C 93 % 1018,7 hPa 0,0 l/m 0 min 0 min 0,0 UV-I 9 W/m 2,6 km/h (1 Bft)
23.11.2013 16:14 6,1 C 5,0 C 93 % 1018,7 hPa 0,0 l/m 0 min 0 min 0,0 UV-I 9 W/m 0,0 km/h (0 Bft)
23.11.2013 16:16 6,1 C 5,0 C 93 % 1018,7 hPa 0,0 l/m 0 min 0 min 0,0 UV-I 9 W/m 5,1 km/h (1 Bft)
23.11.2013 16:18 6,1 C 5,0 C 93 % 1018,7 hPa 0,0 l/m 0 min 0 min 0,0 UV-I 7 W/m 0,0 km/h (0 Bft)
23.11.2013 16:20 6,1 C 5,0 C 93 % 1018,8 hPa 0,0 l/m 0 min 0 min 0,0 UV-I 7 W/m 0,0 km/h (0 Bft)
23.11.2013 16:22 6,1 C 5,0 C 93 % 1018,8 hPa 0,0 l/m 0 min 0 min 0,0 UV-I 5 W/m 2,6 km/h (1 Bft)
23.11.2013 16:24 6,1 C 5,0 C 93 % 1018,8 hPa 0,0 l/m 0 min 0 min 0,0 UV-I 5 W/m 5,1 km/h (1 Bft)
23.11.2013 16:26 6,1 C 5,0 C 92 % 1018,8 hPa 0,0 l/m 0 min 0 min 0,0 UV-I 5 W/m 5,1 km/h (1 Bft)
23.11.2013 16:28 6,1 C 5,0 C 92 % 1018,8 hPa 0,0 l/m 0 min 0 min 0,0 UV-I 5 W/m 7,7 km/h (2 Bft)
23.11.2013 16:30 6,1 C 5,0 C 92 % 1018,8 hPa 0,0 l/m 0 min 0 min 0,0 UV-I 5 W/m 10,3 km/h (2 Bft)
23.11.2013 16:32 6,1 C 5,0 C 92 % 1018,9 hPa 0,0 l/m 0 min 0 min 0,0 UV-I 5 W/m 10,3 km/h (2 Bft)
23.11.2013 16:34 6,1 C 5,0 C 92 % 1018,9 hPa 0,0 l/m 0 min 0 min 0,0 UV-I 0 W/m 10,3 km/h (2 Bft)
23.11.2013 16:36 6,1 C 5,0 C 92 % 1018,8 hPa 0,0 l/m 0 min 0 min 0,0 UV-I 0 W/m 12,9 km/h (3 Bft)
23.11.2013 16:38 6,1 C 5,0 C 92 % 1018,9 hPa 0,0 l/m 0 min 0 min 0,0 UV-I 0 W/m 10,3 km/h (2 Bft)
23.11.2013 16:40 6,1 C 5,0 C 92 % 1019,0 hPa 0,0 l/m 0 min 0 min 0,0 UV-I 0 W/m 7,7 km/h (2 Bft)
23.11.2013 16:42 6,1 C 5,0 C 92 % 1019,0 hPa 0,0 l/m 0 min 0 min 0,0 UV-I 0 W/m 5,1 km/h (1 Bft)
23.11.2013 16:44 6,1 C 5,0 C 92 % 1019,0 hPa 0,0 l/m 0 min 0 min 0,0 UV-I 0 W/m 7,7 km/h (2 Bft)
23.11.2013 16:46 6,1 C 5,0 C 92 % 1019,0 hPa 0,0 l/m 0 min 0 min 0,0 UV-I 0 W/m 7,7 km/h (2 Bft)
23.11.2013 16:48 6,0 C 5,0 C 92 % 1018,9 hPa 0,0 l/m 0 min 0 min 0,0 UV-I 0 W/m 15,4 km/h (3 Bft)
23.11.2013 16:50 6,0 C 5,0 C 92 % 1019,0 hPa 0,0 l/m 0 min 0 min 0,0 UV-I 0 W/m 12,9 km/h (3 Bft)
23.11.2013 16:52 6,1 C 5,0 C 92 % 1019,1 hPa 0,0 l/m 0 min 0 min 0,0 UV-I 0 W/m 12,9 km/h (3 Bft)
23.11.2013 16:54 6,0 C 5,0 C 92 % 1019,0 hPa 0,0 l/m 0 min 0 min 0,0 UV-I 0 W/m 7,7 km/h (2 Bft)
23.11.2013 16:56 6,0 C 5,0 C 92 % 1019,1 hPa 0,0 l/m 0 min 0 min 0,0 UV-I 0 W/m 10,3 km/h (2 Bft)
23.11.2013 16:58 6,0 C 5,0 C 92 % 1019,1 hPa 0,0 l/m 0 min 0 min 0,0 UV-I 0 W/m 18,0 km/h (3 Bft)
23.11.2013 17:00 6,0 C 5,0 C 92 % 1019,0 hPa 0,0 l/m 0 min 0 min 0,0 UV-I 0 W/m 10,3 km/h (2 Bft)
23.11.2013 17:02 6,0 C 5,0 C 92 % 1019,0 hPa 0,0 l/m 0 min 0 min 0,0 UV-I 0 W/m 15,4 km/h (3 Bft)
23.11.2013 17:04 6,0 C 5,0 C 92 % 1019,1 hPa 0,0 l/m 0 min 0 min 0,0 UV-I 0 W/m 15,4 km/h (3 Bft)
23.11.2013 17:06 6,0 C 5,0 C 92 % 1019,1 hPa 0,0 l/m 0 min 0 min 0,0 UV-I 0 W/m 18,0 km/h (3 Bft)
23.11.2013 17:08 6,0 C 5,0 C 92 % 1019,1 hPa 0,0 l/m 0 min 0 min 0,0 UV-I 0 W/m 15,4 km/h (3 Bft)
23.11.2013 17:10 5,9 C 5,0 C 92 % 1019,1 hPa 0,0 l/m 0 min 0 min 0,0 UV-I 0 W/m 15,4 km/h (3 Bft)
23.11.2013 17:12 5,9 C 5,0 C 92 % 1019,1 hPa 0,0 l/m 0 min 0 min 0,0 UV-I 0 W/m 7,7 km/h (2 Bft)
23.11.2013 17:14 5,9 C 5,0 C 92 % 1019,2 hPa 0,0 l/m 0 min 0 min 0,0 UV-I 0 W/m 7,7 km/h (2 Bft)
23.11.2013 17:16 5,9 C 5,0 C 92 % 1019,1 hPa 0,0 l/m 0 min 0 min 0,0 UV-I 0 W/m 7,7 km/h (2 Bft)
23.11.2013 17:18 5,9 C 5,0 C 92 % 1019,2 hPa 0,0 l/m 0 min 0 min 0,0 UV-I 0 W/m 10,3 km/h (2 Bft)
23.11.2013 17:20 5,9 C 5,0 C 92 % 1019,2 hPa 0,0 l/m 0 min 0 min 0,0 UV-I 0 W/m 7,7 km/h (2 Bft)
23.11.2013 17:22 5,9 C 5,0 C 92 % 1019,2 hPa 0,0 l/m 0 min 0 min 0,0 UV-I 0 W/m 7,7 km/h (2 Bft)
23.11.2013 17:24 5,9 C 5,0 C 92 % 1019,2 hPa 0,0 l/m 0 min 0 min 0,0 UV-I 0 W/m 10,3 km/h (2 Bft)
23.11.2013 17:26 5,9 C 5,0 C 92 % 1019,2 hPa 0,0 l/m 0 min 0 min 0,0 UV-I 0 W/m 12,9 km/h (3 Bft)
23.11.2013 17:28 5,9 C 5,0 C 92 % 1019,3 hPa 0,0 l/m 0 min 0 min 0,0 UV-I 0 W/m 10,3 km/h (2 Bft)
23.11.2013 17:30 5,9 C 5,0 C 92 % 1019,3 hPa 0,0 l/m 0 min 0 min 0,0 UV-I 0 W/m 10,3 km/h (2 Bft)
23.11.2013 17:32 5,9 C 5,0 C 92 % 1019,3 hPa 0,0 l/m 0 min 0 min 0,0 UV-I 0 W/m 10,3 km/h (2 Bft)
23.11.2013 17:34 5,9 C 5,0 C 92 % 1019,3 hPa 0,0 l/m 0 min 0 min 0,0 UV-I 0 W/m 12,9 km/h (3 Bft)
23.11.2013 17:36 5,9 C 5,0 C 92 % 1019,3 hPa 0,0 l/m 0 min 0 min 0,0 UV-I 0 W/m 10,3 km/h (2 Bft)
23.11.2013 17:38 5,9 C 5,0 C 92 % 1019,3 hPa 0,0 l/m 0 min 0 min 0,0 UV-I 0 W/m 12,9 km/h (3 Bft)
23.11.2013 17:40 5,9 C 4,4 C 92 % 1019,4 hPa 0,0 l/m 0 min 0 min 0,0 UV-I 0 W/m 7,7 km/h (2 Bft)
23.11.2013 17:42 5,8 C 4,4 C 92 % 1019,4 hPa 0,0 l/m 0 min 0 min 0,0 UV-I 0 W/m 7,7 km/h (2 Bft)
23.11.2013 17:44 5,8 C 4,4 C 92 % 1019,4 hPa 0,0 l/m 0 min 0 min 0,0 UV-I 0 W/m 10,3 km/h (2 Bft)
23.11.2013 17:46 5,8 C 4,4 C 92 % 1019,4 hPa 0,0 l/m 0 min 0 min 0,0 UV-I 0 W/m 12,9 km/h (3 Bft)
23.11.2013 17:48 5,8 C 4,4 C 92 % 1019,5 hPa 0,0 l/m 0 min 0 min 0,0 UV-I 0 W/m 10,3 km/h (2 Bft)
23.11.2013 17:50 5,8 C 4,4 C 92 % 1019,4 hPa 0,0 l/m 0 min 0 min 0,0 UV-I 0 W/m 10,3 km/h (2 Bft)
23.11.2013 17:52 5,8 C 4,4 C 92 % 1019,5 hPa 0,0 l/m 0 min 0 min 0,0 UV-I 0 W/m 7,7 km/h (2 Bft)
23.11.2013 17:54 5,8 C 4,4 C 92 % 1019,6 hPa 0,0 l/m 0 min 0 min 0,0 UV-I 0 W/m 12,9 km/h (3 Bft)
23.11.2013 17:56 5,8 C 4,4 C 92 % 1019,5 hPa 0,0 l/m 0 min 0 min 0,0 UV-I 0 W/m 10,3 km/h (2 Bft)
23.11.2013 17:58 5,8 C 4,4 C 92 % 1019,6 hPa 0,0 l/m 0 min 0 min 0,0 UV-I 0 W/m 0,0 km/h (0 Bft)
23.11.2013 18:00 5,8 C 4,4 C 92 % 1019,6 hPa 0,0 l/m 0 min 0 min 0,0 UV-I 0 W/m 7,7 km/h (2 Bft)
23.11.2013 18:02 5,8 C 4,4 C 92 % 1019,6 hPa 0,0 l/m 0 min 0 min 0,0 UV-I 0 W/m 10,3 km/h (2 Bft)
23.11.2013 18:04 5,8 C 4,4 C 92 % 1019,6 hPa 0,0 l/m 0 min 0 min 0,0 UV-I 0 W/m 7,7 km/h (2 Bft)
23.11.2013 18:06 5,8 C 4,4 C 92 % 1019,6 hPa 0,0 l/m 0 min 0 min 0,0 UV-I 0 W/m 10,3 km/h (2 Bft)
23.11.2013 18:08 5,8 C 4,4 C 92 % 1019,6 hPa 0,0 l/m 0 min 0 min 0,0 UV-I 0 W/m 7,7 km/h (2 Bft)
23.11.2013 18:10 5,8 C 4,4 C 92 % 1019,6 hPa 0,0 l/m 0 min 0 min 0,0 UV-I 0 W/m 2,6 km/h (1 Bft)
23.11.2013 18:12 5,8 C 4,4 C 92 % 1019,6 hPa 0,0 l/m 0 min 0 min 0,0 UV-I 0 W/m 12,9 km/h (3 Bft)
23.11.2013 18:14 5,7 C 4,4 C 92 % 1019,6 hPa 0,0 l/m 0 min 0 min 0,0 UV-I 0 W/m 7,7 km/h (2 Bft)
23.11.2013 18:16 5,7 C 4,4 C 92 % 1019,6 hPa 0,0 l/m 0 min 0 min 0,0 UV-I 0 W/m 15,4 km/h (3 Bft)
23.11.2013 18:18 5,8 C 4,4 C 92 % 1019,7 hPa 0,0 l/m 0 min 0 min 0,0 UV-I 0 W/m 10,3 km/h (2 Bft)
23.11.2013 18:20 5,7 C 4,4 C 92 % 1019,7 hPa 0,0 l/m 0 min 0 min 0,0 UV-I 0 W/m 12,9 km/h (3 Bft)
23.11.2013 18:22 5,7 C 4,4 C 91 % 1019,7 hPa 0,0 l/m 0 min 0 min 0,0 UV-I 0 W/m 15,4 km/h (3 Bft)
23.11.2013 18:24 5,7 C 4,4 C 92 % 1019,8 hPa 0,0 l/m 0 min 0 min 0,0 UV-I 0 W/m 12,9 km/h (3 Bft)
23.11.2013 18:26 5,7 C 4,4 C 92 % 1019,8 hPa 0,0 l/m 0 min 0 min 0,0 UV-I 0 W/m 15,4 km/h (3 Bft)
23.11.2013 18:28 5,7 C 4,4 C 92 % 1019,8 hPa 0,0 l/m 0 min 0 min 0,0 UV-I 0 W/m 12,9 km/h (3 Bft)
23.11.2013 18:30 5,7 C 4,4 C 92 % 1019,8 hPa 0,0 l/m 0 min 0 min 0,0 UV-I 0 W/m 15,4 km/h (3 Bft)
23.11.2013 18:32 5,7 C 4,4 C 92 % 1019,8 hPa 0,0 l/m 0 min 0 min 0,0 UV-I 0 W/m 10,3 km/h (2 Bft)
23.11.2013 18:34 5,7 C 4,4 C 92 % 1019,8 hPa 0,0 l/m 0 min 0 min 0,0 UV-I 0 W/m 15,4 km/h (3 Bft)
23.11.2013 18:36 5,7 C 4,4 C 92 % 1019,8 hPa 0,0 l/m 0 min 0 min 0,0 UV-I 0 W/m 18,0 km/h (3 Bft)
23.11.2013 18:38 5,7 C 4,4 C 92 % 1019,8 hPa 0,0 l/m 0 min 0 min 0,0 UV-I 0 W/m 12,9 km/h (3 Bft)
23.11.2013 18:40 5,7 C 4,4 C 92 % 1019,8 hPa 0,0 l/m 0 min 0 min 0,0 UV-I 0 W/m 10,3 km/h (2 Bft)
23.11.2013 18:42 5,7 C 4,4 C 92 % 1019,8 hPa 0,0 l/m 0 min 0 min 0,0 UV-I 0 W/m 12,9 km/h (3 Bft)
23.11.2013 18:44 5,7 C 4,4 C 92 % 1019,8 hPa 0,0 l/m 0 min 0 min 0,0 UV-I 0 W/m 12,9 km/h (3 Bft)
23.11.2013 18:46 5,7 C 4,4 C 92 % 1019,8 hPa 0,0 l/m 0 min 0 min 0,0 UV-I 0 W/m 12,9 km/h (3 Bft)
23.11.2013 18:48 5,7 C 4,4 C 92 % 1019,8 hPa 0,0 l/m 0 min 0 min 0,0 UV-I 0 W/m 12,9 km/h (3 Bft)
23.11.2013 18:50 5,7 C 4,4 C 92 % 1019,8 hPa 0,0 l/m 0 min 0 min 0,0 UV-I 0 W/m 12,9 km/h (3 Bft)
23.11.2013 18:52 5,7 C 4,4 C 92 % 1019,8 hPa 0,0 l/m 0 min 0 min 0,0 UV-I 0 W/m 15,4 km/h (3 Bft)
23.11.2013 18:54 5,7 C 4,4 C 92 % 1019,8 hPa 0,0 l/m 0 min 0 min 0,0 UV-I 0 W/m 10,3 km/h (2 Bft)
23.11.2013 18:56 5,7 C 4,4 C 92 % 1019,8 hPa 0,0 l/m 0 min 0 min 0,0 UV-I 0 W/m 12,9 km/h (3 Bft)
23.11.2013 18:58 5,7 C 4,4 C 91 % 1019,9 hPa 0,0 l/m 0 min 0 min 0,0 UV-I 0 W/m 25,7 km/h (4 Bft)
23.11.2013 19:00 5,7 C 4,4 C 91 % 1019,9 hPa 0,0 l/m 0 min 0 min 0,0 UV-I 0 W/m 20,6 km/h (4 Bft)
23.11.2013 19:02 5,7 C 4,4 C 91 % 1019,8 hPa 0,0 l/m 0 min 0 min 0,0 UV-I 0 W/m 10,3 km/h (2 Bft)
23.11.2013 19:04 5,7 C 4,4 C 91 % 1019,8 hPa 0,0 l/m 0 min 0 min 0,0 UV-I 0 W/m 12,9 km/h (3 Bft)
23.11.2013 19:06 5,7 C 4,4 C 91 % 1019,8 hPa 0,0 l/m 0 min 0 min 0,0 UV-I 0 W/m 15,4 km/h (3 Bft)
23.11.2013 19:08 5,7 C 4,4 C 91 % 1019,8 hPa 0,0 l/m 0 min 0 min 0,0 UV-I 0 W/m 15,4 km/h (3 Bft)
23.11.2013 19:10 5,7 C 4,4 C 91 % 1019,8 hPa 0,0 l/m 0 min 0 min 0,0 UV-I 0 W/m 15,4 km/h (3 Bft)
23.11.2013 19:12 5,7 C 4,4 C 91 % 1019,8 hPa 0,0 l/m 0 min 0 min 0,0 UV-I 0 W/m 12,9 km/h (3 Bft)
23.11.2013 19:14 5,7 C 4,4 C 91 % 1019,8 hPa 0,0 l/m 0 min 0 min 0,0 UV-I 0 W/m 10,3 km/h (2 Bft)
23.11.2013 19:16 5,7 C 4,4 C 91 % 1019,9 hPa 0,0 l/m 0 min 0 min 0,0 UV-I 0 W/m 18,0 km/h (3 Bft)
23.11.2013 19:18 5,7 C 4,4 C 91 % 1019,9 hPa 0,0 l/m 0 min 0 min 0,0 UV-I 0 W/m 18,0 km/h (3 Bft)
23.11.2013 19:20 5,7 C 4,4 C 91 % 1019,9 hPa 0,0 l/m 0 min 0 min 0,0 UV-I 0 W/m 12,9 km/h (3 Bft)
23.11.2013 19:22 5,7 C 4,4 C 91 % 1019,9 hPa 0,0 l/m 0 min 0 min 0,0 UV-I 0 W/m 18,0 km/h (3 Bft)
23.11.2013 19:24 5,7 C 4,4 C 91 % 1019,9 hPa 0,0 l/m 0 min 0 min 0,0 UV-I 0 W/m 18,0 km/h (3 Bft)
23.11.2013 19:26 5,7 C 4,4 C 91 % 1019,9 hPa 0,0 l/m 0 min 0 min 0,0 UV-I 0 W/m 12,9 km/h (3 Bft)
23.11.2013 19:28 5,7 C 4,4 C 91 % 1019,9 hPa 0,0 l/m 0 min 0 min 0,0 UV-I 0 W/m 15,4 km/h (3 Bft)
23.11.2013 19:30 5,7 C 4,4 C 90 % 1019,9 hPa 0,0 l/m 0 min 0 min 0,0 UV-I 0 W/m 12,9 km/h (3 Bft)
23.11.2013 19:32 5,7 C 4,4 C 90 % 1020,0 hPa 0,0 l/m 0 min 0 min 0,0 UV-I 0 W/m 10,3 km/h (2 Bft)
23.11.2013 19:34 5,7 C 4,4 C 90 % 1020,0 hPa 0,0 l/m 0 min 0 min 0,0 UV-I 0 W/m 15,4 km/h (3 Bft)
23.11.2013 19:36 5,6 C 4,4 C 90 % 1020,0 hPa 0,0 l/m 0 min 0 min 0,0 UV-I 0 W/m 10,3 km/h (2 Bft)
23.11.2013 19:38 5,6 C 4,4 C 90 % 1020,0 hPa 0,0 l/m 0 min 0 min 0,0 UV-I 0 W/m 10,3 km/h (2 Bft)
23.11.2013 19:40 5,6 C 4,4 C 90 % 1020,0 hPa 0,0 l/m 0 min 0 min 0,0 UV-I 0 W/m 12,9 km/h (3 Bft)
23.11.2013 19:42 5,6 C 4,4 C 90 % 1020,0 hPa 0,0 l/m 0 min 0 min 0,0 UV-I 0 W/m 15,4 km/h (3 Bft)
23.11.2013 19:44 5,6 C 4,4 C 90 % 1020,0 hPa 0,0 l/m 0 min 0 min 0,0 UV-I 0 W/m 10,3 km/h (2 Bft)
23.11.2013 19:46 5,6 C 4,4 C 90 % 1019,9 hPa 0,0 l/m 0 min 0 min 0,0 UV-I 0 W/m 7,7 km/h (2 Bft)
23.11.2013 19:48 5,5 C 4,4 C 90 % 1020,0 hPa 0,0 l/m 0 min 0 min 0,0 UV-I 0 W/m 15,4 km/h (3 Bft)
23.11.2013 19:50 5,5 C 4,4 C 90 % 1020,0 hPa 0,0 l/m 0 min 0 min 0,0 UV-I 0 W/m 18,0 km/h (3 Bft)
23.11.2013 19:52 5,4 C 3,9 C 90 % 1020,0 hPa 0,0 l/m 0 min 0 min 0,0 UV-I 0 W/m 12,9 km/h (3 Bft)
23.11.2013 19:54 5,4 C 3,9 C 90 % 1020,0 hPa 0,0 l/m 0 min 0 min 0,0 UV-I 0 W/m 12,9 km/h (3 Bft)
23.11.2013 19:56 5,4 C 3,9 C 90 % 1020,0 hPa 0,0 l/m 0 min 0 min 0,0 UV-I 0 W/m 7,7 km/h (2 Bft)
23.11.2013 19:58 5,4 C 3,9 C 90 % 1020,1 hPa 0,0 l/m 0 min 0 min 0,0 UV-I 0 W/m 12,9 km/h (3 Bft)
23.11.2013 20:00 5,4 C 3,9 C 90 % 1020,1 hPa 0,0 l/m 0 min 0 min 0,0 UV-I 0 W/m 10,3 km/h (2 Bft)
23.11.2013 20:02 5,3 C 3,9 C 90 % 1020,2 hPa 0,0 l/m 0 min 0 min 0,0 UV-I 0 W/m 10,3 km/h (2 Bft)
23.11.2013 20:04 5,3 C 3,9 C 90 % 1020,2 hPa 0,0 l/m 0 min 0 min 0,0 UV-I 0 W/m 10,3 km/h (2 Bft)
23.11.2013 20:06 5,3 C 3,9 C 90 % 1020,1 hPa 0,0 l/m 0 min 0 min 0,0 UV-I 0 W/m 15,4 km/h (3 Bft)
23.11.2013 20:08 5,3 C 3,9 C 90 % 1020,1 hPa 0,0 l/m 0 min 0 min 0,0 UV-I 0 W/m 5,1 km/h (1 Bft)
23.11.2013 20:10 5,3 C 3,9 C 90 % 1020,1 hPa 0,0 l/m 0 min 0 min 0,0 UV-I 0 W/m 7,7 km/h (2 Bft)
23.11.2013 20:12 5,2 C 3,9 C 90 % 1020,1 hPa 0,0 l/m 0 min 0 min 0,0 UV-I 0 W/m 12,9 km/h (3 Bft)
23.11.2013 20:14 5,2 C 3,9 C 90 % 1020,1 hPa 0,0 l/m 0 min 0 min 0,0 UV-I 0 W/m 7,7 km/h (2 Bft)
23.11.2013 20:16 5,2 C 3,9 C 90 % 1020,1 hPa 0,0 l/m 0 min 0 min 0,0 UV-I 0 W/m 2,6 km/h (1 Bft)
23.11.2013 20:18 5,2 C 3,9 C 90 % 1020,0 hPa 0,0 l/m 0 min 0 min 0,0 UV-I 0 W/m 7,7 km/h (2 Bft)
23.11.2013 20:20 5,1 C 3,9 C 90 % 1020,1 hPa 0,0 l/m 0 min 0 min 0,0 UV-I 0 W/m 10,3 km/h (2 Bft)
23.11.2013 20:22 5,1 C 3,9 C 90 % 1020,0 hPa 0,0 l/m 0 min 0 min 0,0 UV-I 0 W/m 12,9 km/h (3 Bft)
23.11.2013 20:24 5,1 C 3,9 C 90 % 1020,0 hPa 0,0 l/m 0 min 0 min 0,0 UV-I 0 W/m 10,3 km/h (2 Bft)
23.11.2013 20:26 5,0 C 3,3 C 90 % 1020,0 hPa 0,0 l/m 0 min 0 min 0,0 UV-I 0 W/m 7,7 km/h (2 Bft)
23.11.2013 20:28 5,0 C 3,3 C 90 % 1020,0 hPa 0,0 l/m 0 min 0 min 0,0 UV-I 0 W/m 10,3 km/h (2 Bft)
23.11.2013 20:30 4,9 C 3,3 C 90 % 1020,0 hPa 0,0 l/m 0 min 0 min 0,0 UV-I 0 W/m 0,0 km/h (0 Bft)
23.11.2013 20:32 4,9 C 3,3 C 90 % 1020,0 hPa 0,0 l/m 0 min 0 min 0,0 UV-I 0 W/m 10,3 km/h (2 Bft)
23.11.2013 20:34 4,9 C 3,3 C 90 % 1020,0 hPa 0,0 l/m 0 min 0 min 0,0 UV-I 0 W/m 2,6 km/h (1 Bft)
23.11.2013 20:36 4,8 C 3,3 C 90 % 1020,1 hPa 0,0 l/m 0 min 0 min 0,0 UV-I 0 W/m 7,7 km/h (2 Bft)
23.11.2013 20:38 4,8 C 3,3 C 90 % 1020,1 hPa 0,0 l/m 0 min 0 min 0,0 UV-I 0 W/m 12,9 km/h (3 Bft)
23.11.2013 20:40 4,8 C 3,3 C 90 % 1020,0 hPa 0,0 l/m 0 min 0 min 0,0 UV-I 0 W/m 0,0 km/h (0 Bft)
23.11.2013 20:42 4,7 C 3,3 C 90 % 1020,1 hPa 0,0 l/m 0 min 0 min 0,0 UV-I 0 W/m 7,7 km/h (2 Bft)
23.11.2013 20:44 4,7 C 3,3 C 90 % 1020,2 hPa 0,0 l/m 0 min 0 min 0,0 UV-I 0 W/m 7,7 km/h (2 Bft)
23.11.2013 20:46 4,7 C 3,3 C 90 % 1020,2 hPa 0,0 l/m 0 min 0 min 0,0 UV-I 0 W/m 7,7 km/h (2 Bft)
23.11.2013 20:48 4,6 C 2,8 C 89 % 1020,2 hPa 0,0 l/m 0 min 0 min 0,0 UV-I 0 W/m 2,6 km/h (1 Bft)
23.11.2013 20:50 4,6 C 2,8 C 89 % 1020,1 hPa 0,0 l/m 0 min 0 min 0,0 UV-I 0 W/m 10,3 km/h (2 Bft)
23.11.2013 20:52 4,6 C 2,8 C 89 % 1020,3 hPa 0,0 l/m 0 min 0 min 0,0 UV-I 0 W/m 7,7 km/h (2 Bft)
23.11.2013 20:54 4,5 C 2,8 C 90 % 1020,3 hPa 0,0 l/m 0 min 0 min 0,0 UV-I 0 W/m 5,1 km/h (1 Bft)
23.11.2013 20:56 4,5 C 2,8 C 90 % 1020,3 hPa 0,0 l/m 0 min 0 min 0,0 UV-I 0 W/m 7,7 km/h (2 Bft)
23.11.2013 20:58 4,4 C 2,8 C 90 % 1020,3 hPa 0,0 l/m 0 min 0 min 0,0 UV-I 0 W/m 7,7 km/h (2 Bft)
23.11.2013 21:00 4,4 C 2,8 C 90 % 1020,3 hPa 0,0 l/m 0 min 0 min 0,0 UV-I 0 W/m 7,7 km/h (2 Bft)
23.11.2013 21:02 4,3 C 2,8 C 90 % 1020,3 hPa 0,0 l/m 0 min 0 min 0,0 UV-I 0 W/m 5,1 km/h (1 Bft)
23.11.2013 21:04 4,3 C 2,8 C 90 % 1020,3 hPa 0,0 l/m 0 min 0 min 0,0 UV-I 0 W/m 10,3 km/h (2 Bft)
23.11.2013 21:06 4,3 C 2,8 C 90 % 1020,3 hPa 0,0 l/m 0 min 0 min 0,0 UV-I 0 W/m 10,3 km/h (2 Bft)
23.11.2013 21:08 4,2 C 2,8 C 90 % 1020,3 hPa 0,0 l/m 0 min 0 min 0,0 UV-I 0 W/m 5,1 km/h (1 Bft)
23.11.2013 21:10 4,2 C 2,8 C 90 % 1020,3 hPa 0,0 l/m 0 min 0 min 0,0 UV-I 0 W/m 5,1 km/h (1 Bft)
23.11.2013 21:12 4,2 C 2,8 C 90 % 1020,3 hPa 0,0 l/m 0 min 0 min 0,0 UV-I 0 W/m 5,1 km/h (1 Bft)
23.11.2013 21:14 4,2 C 2,8 C 90 % 1020,3 hPa 0,0 l/m 0 min 0 min 0,0 UV-I 0 W/m 2,6 km/h (1 Bft)
23.11.2013 21:16 4,1 C 2,8 C 90 % 1020,3 hPa 0,0 l/m 0 min 0 min 0,0 UV-I 0 W/m 0,0 km/h (0 Bft)
23.11.2013 21:18 4,1 C 2,8 C 90 % 1020,3 hPa 0,0 l/m 0 min 0 min 0,0 UV-I 0 W/m 7,7 km/h (2 Bft)
23.11.2013 21:20 4,0 C 2,2 C 90 % 1020,3 hPa 0,0 l/m 0 min 0 min 0,0 UV-I 0 W/m 0,0 km/h (0 Bft)
23.11.2013 21:22 4,0 C 2,2 C 90 % 1020,3 hPa 0,0 l/m 0 min 0 min 0,0 UV-I 0 W/m 0,0 km/h (0 Bft)
23.11.2013 21:24 3,9 C 2,2 C 90 % 1020,4 hPa 0,0 l/m 0 min 0 min 0,0 UV-I 0 W/m 2,6 km/h (1 Bft)
23.11.2013 21:26 3,9 C 2,2 C 90 % 1020,4 hPa 0,0 l/m 0 min 0 min 0,0 UV-I 0 W/m 2,6 km/h (1 Bft)
23.11.2013 21:28 3,8 C 2,2 C 90 % 1020,4 hPa 0,0 l/m 0 min 0 min 0,0 UV-I 0 W/m 7,7 km/h (2 Bft)
23.11.2013 21:30 3,8 C 2,2 C 90 % 1020,5 hPa 0,0 l/m 0 min 0 min 0,0 UV-I 0 W/m 7,7 km/h (2 Bft)
23.11.2013 21:32 3,7 C 2,2 C 90 % 1020,5 hPa 0,0 l/m 0 min 0 min 0,0 UV-I 0 W/m 0,0 km/h (0 Bft)
23.11.2013 21:34 3,7 C 2,2 C 90 % 1020,4 hPa 0,0 l/m 0 min 0 min 0,0 UV-I 0 W/m 2,6 km/h (1 Bft)
23.11.2013 21:36 3,7 C 2,2 C 91 % 1020,4 hPa 0,0 l/m 0 min 0 min 0,0 UV-I 0 W/m 0,0 km/h (0 Bft)
23.11.2013 21:38 3,7 C 2,2 C 91 % 1020,4 hPa 0,0 l/m 0 min 0 min 0,0 UV-I 0 W/m 2,6 km/h (1 Bft)
23.11.2013 21:40 3,6 C 2,2 C 91 % 1020,4 hPa 0,0 l/m 0 min 0 min 0,0 UV-I 0 W/m 0,0 km/h (0 Bft)
23.11.2013 21:42 3,6 C 2,2 C 91 % 1020,4 hPa 0,0 l/m 0 min 0 min 0,0 UV-I 0 W/m 0,0 km/h (0 Bft)
23.11.2013 21:44 3,6 C 2,2 C 91 % 1020,4 hPa 0,0 l/m 0 min 0 min 0,0 UV-I 0 W/m 7,7 km/h (2 Bft)
23.11.2013 21:46 3,5 C 2,2 C 91 % 1020,4 hPa 0,0 l/m 0 min 0 min 0,0 UV-I 0 W/m 0,0 km/h (0 Bft)
23.11.2013 21:48 3,5 C 2,2 C 91 % 1020,4 hPa 0,0 l/m 0 min 0 min 0,0 UV-I 0 W/m 7,7 km/h (2 Bft)
23.11.2013 21:50 3,4 C 2,2 C 91 % 1020,4 hPa 0,0 l/m 0 min 0 min 0,0 UV-I 0 W/m 5,1 km/h (1 Bft)
23.11.2013 21:52 3,4 C 2,2 C 91 % 1020,5 hPa 0,0 l/m 0 min 0 min 0,0 UV-I 0 W/m 0,0 km/h (0 Bft)
23.11.2013 21:54 3,4 C 1,7 C 91 % 1020,5 hPa 0,0 l/m 0 min 0 min 0,0 UV-I 0 W/m 2,6 km/h (1 Bft)
23.11.2013 21:56 3,3 C 1,7 C 91 % 1020,5 hPa 0,0 l/m 0 min 0 min 0,0 UV-I 0 W/m 2,6 km/h (1 Bft)
23.11.2013 21:58 3,3 C 1,7 C 91 % 1020,4 hPa 0,0 l/m 0 min 0 min 0,0 UV-I 0 W/m 7,7 km/h (2 Bft)
23.11.2013 22:00 3,3 C 1,7 C 91 % 1020,5 hPa 0,0 l/m 0 min 0 min 0,0 UV-I 0 W/m 2,6 km/h (1 Bft)
23.11.2013 22:02 3,3 C 1,7 C 91 % 1020,5 hPa 0,0 l/m 0 min 0 min 0,0 UV-I 0 W/m 5,1 km/h (1 Bft)
23.11.2013 22:04 3,2 C 1,7 C 92 % 1020,5 hPa 0,0 l/m 0 min 0 min 0,0 UV-I 0 W/m 0,0 km/h (0 Bft)
23.11.2013 22:06 3,2 C 1,7 C 92 % 1020,4 hPa 0,0 l/m 0 min 0 min 0,0 UV-I 0 W/m 0,0 km/h (0 Bft)
23.11.2013 22:08 3,2 C 1,7 C 92 % 1020,4 hPa 0,0 l/m 0 min 0 min 0,0 UV-I 0 W/m 0,0 km/h (0 Bft)
23.11.2013 22:10 3,2 C 1,7 C 92 % 1020,4 hPa 0,0 l/m 0 min 0 min 0,0 UV-I 0 W/m 2,6 km/h (1 Bft)
23.11.2013 22:12 3,2 C 1,7 C 92 % 1020,4 hPa 0,0 l/m 0 min 0 min 0,0 UV-I 0 W/m 2,6 km/h (1 Bft)
23.11.2013 22:14 3,1 C 1,7 C 92 % 1020,4 hPa 0,0 l/m 0 min 0 min 0,0 UV-I 0 W/m 2,6 km/h (1 Bft)
23.11.2013 22:16 3,1 C 1,7 C 92 % 1020,4 hPa 0,0 l/m 0 min 0 min 0,0 UV-I 0 W/m 0,0 km/h (0 Bft)
23.11.2013 22:18 3,1 C 1,7 C 92 % 1020,4 hPa 0,0 l/m 0 min 0 min 0,0 UV-I 0 W/m 0,0 km/h (0 Bft)
23.11.2013 22:20 3,1 C 1,7 C 92 % 1020,3 hPa 0,0 l/m 0 min 0 min 0,0 UV-I 0 W/m 7,7 km/h (2 Bft)
23.11.2013 22:22 3,1 C 1,7 C 92 % 1020,4 hPa 0,0 l/m 0 min 0 min 0,0 UV-I 0 W/m 0,0 km/h (0 Bft)
23.11.2013 22:24 3,1 C 1,7 C 92 % 1020,4 hPa 0,0 l/m 0 min 0 min 0,0 UV-I 0 W/m 0,0 km/h (0 Bft)
23.11.2013 22:26 3,1 C 1,7 C 92 % 1020,4 hPa 0,0 l/m 0 min 0 min 0,0 UV-I 0 W/m 2,6 km/h (1 Bft)
23.11.2013 22:28 3,0 C 1,7 C 92 % 1020,4 hPa 0,0 l/m 0 min 0 min 0,0 UV-I 0 W/m 0,0 km/h (0 Bft)
23.11.2013 22:30 3,0 C 1,7 C 92 % 1020,4 hPa 0,0 l/m 0 min 0 min 0,0 UV-I 0 W/m 2,6 km/h (1 Bft)
23.11.2013 22:32 3,0 C 1,7 C 92 % 1020,4 hPa 0,0 l/m 0 min 0 min 0,0 UV-I 0 W/m 0,0 km/h (0 Bft)
23.11.2013 22:34 3,0 C 1,7 C 92 % 1020,4 hPa 0,0 l/m 0 min 0 min 0,0 UV-I 0 W/m 0,0 km/h (0 Bft)
23.11.2013 22:36 2,9 C 1,7 C 92 % 1020,4 hPa 0,0 l/m 0 min 0 min 0,0 UV-I 0 W/m 0,0 km/h (0 Bft)
23.11.2013 22:38 2,9 C 1,7 C 93 % 1020,4 hPa 0,0 l/m 0 min 0 min 0,0 UV-I 0 W/m 0,0 km/h (0 Bft)
23.11.2013 22:40 2,9 C 1,1 C 93 % 1020,4 hPa 0,0 l/m 0 min 0 min 0,0 UV-I 0 W/m 0,0 km/h (0 Bft)
23.11.2013 22:42 2,9 C 1,1 C 92 % 1020,5 hPa 0,0 l/m 0 min 0 min 0,0 UV-I 0 W/m 0,0 km/h (0 Bft)
23.11.2013 22:44 2,9 C 1,1 C 92 % 1020,5 hPa 0,0 l/m 0 min 0 min 0,0 UV-I 0 W/m 0,0 km/h (0 Bft)
23.11.2013 22:46 2,8 C 1,1 C 92 % 1020,5 hPa 0,0 l/m 0 min 0 min 0,0 UV-I 0 W/m 0,0 km/h (0 Bft)
23.11.2013 22:48 2,8 C 1,1 C 92 % 1020,5 hPa 0,0 l/m 0 min 0 min 0,0 UV-I 0 W/m 0,0 km/h (0 Bft)
23.11.2013 22:50 2,8 C 1,1 C 92 % 1020,5 hPa 0,0 l/m 0 min 0 min 0,0 UV-I 0 W/m 0,0 km/h (0 Bft)
23.11.2013 22:52 2,8 C 1,1 C 93 % 1020,5 hPa 0,0 l/m 0 min 0 min 0,0 UV-I 0 W/m 2,6 km/h (1 Bft)
23.11.2013 22:54 2,8 C 1,1 C 93 % 1020,5 hPa 0,0 l/m 0 min 0 min 0,0 UV-I 0 W/m 0,0 km/h (0 Bft)
23.11.2013 22:56 2,7 C 1,1 C 93 % 1020,5 hPa 0,0 l/m 0 min 0 min 0,0 UV-I 0 W/m 5,1 km/h (1 Bft)
23.11.2013 22:58 2,7 C 1,1 C 93 % 1020,5 hPa 0,0 l/m 0 min 0 min 0,0 UV-I 0 W/m 2,6 km/h (1 Bft)
23.11.2013 23:00 2,7 C 1,1 C 93 % 1020,6 hPa 0,0 l/m 0 min 0 min 0,0 UV-I 0 W/m 5,1 km/h (1 Bft)
23.11.2013 23:02 2,7 C 1,1 C 93 % 1020,6 hPa 0,0 l/m 0 min 0 min 0,0 UV-I 0 W/m 5,1 km/h (1 Bft)
23.11.2013 23:04 2,7 C 1,1 C 93 % 1020,7 hPa 0,0 l/m 0 min 0 min 0,0 UV-I 0 W/m 0,0 km/h (0 Bft)
23.11.2013 23:06 2,6 C 1,1 C 93 % 1020,7 hPa 0,0 l/m 0 min 0 min 0,0 UV-I 0 W/m 0,0 km/h (0 Bft)
23.11.2013 23:08 2,6 C 1,1 C 93 % 1020,7 hPa 0,0 l/m 0 min 0 min 0,0 UV-I 0 W/m 0,0 km/h (0 Bft)
23.11.2013 23:10 2,6 C 1,1 C 93 % 1020,7 hPa 0,0 l/m 0 min 0 min 0,0 UV-I 0 W/m 0,0 km/h (0 Bft)
23.11.2013 23:12 2,5 C 1,1 C 93 % 1020,7 hPa 0,0 l/m 0 min 0 min 0,0 UV-I 0 W/m 0,0 km/h (0 Bft)
23.11.2013 23:14 2,5 C 1,1 C 93 % 1020,7 hPa 0,0 l/m 0 min 0 min 0,0 UV-I 0 W/m 0,0 km/h (0 Bft)
23.11.2013 23:16 2,5 C 0,6 C 93 % 1020,7 hPa 0,0 l/m 0 min 0 min 0,0 UV-I 0 W/m 0,0 km/h (0 Bft)
23.11.2013 23:18 2,4 C 0,6 C 93 % 1020,7 hPa 0,0 l/m 0 min 0 min 0,0 UV-I 0 W/m 0,0 km/h (0 Bft)
23.11.2013 23:20 2,4 C 0,6 C 93 % 1020,7 hPa 0,0 l/m 0 min 0 min 0,0 UV-I 0 W/m 0,0 km/h (0 Bft)
23.11.2013 23:22 2,4 C 0,6 C 93 % 1020,7 hPa 0,0 l/m 0 min 0 min 0,0 UV-I 0 W/m 0,0 km/h (0 Bft)
23.11.2013 23:24 2,4 C 0,6 C 93 % 1020,7 hPa 0,0 l/m 0 min 0 min 0,0 UV-I 0 W/m 0,0 km/h (0 Bft)
23.11.2013 23:26 2,3 C 0,6 C 93 % 1020,8 hPa 0,0 l/m 0 min 0 min 0,0 UV-I 0 W/m 0,0 km/h (0 Bft)
23.11.2013 23:28 2,3 C 0,6 C 93 % 1020,7 hPa 0,0 l/m 0 min 0 min 0,0 UV-I 0 W/m 0,0 km/h (0 Bft)
23.11.2013 23:30 2,3 C 0,6 C 93 % 1020,8 hPa 0,0 l/m 0 min 0 min 0,0 UV-I 0 W/m 0,0 km/h (0 Bft)
23.11.2013 23:32 2,2 C 0,6 C 93 % 1020,7 hPa 0,0 l/m 0 min 0 min 0,0 UV-I 0 W/m 0,0 km/h (0 Bft)
23.11.2013 23:34 2,2 C 0,6 C 93 % 1020,8 hPa 0,0 l/m 0 min 0 min 0,0 UV-I 0 W/m 0,0 km/h (0 Bft)
23.11.2013 23:36 2,2 C 0,6 C 93 % 1020,8 hPa 0,0 l/m 0 min 0 min 0,0 UV-I 0 W/m 0,0 km/h (0 Bft)
23.11.2013 23:38 2,2 C 0,6 C 93 % 1020,8 hPa 0,0 l/m 0 min 0 min 0,0 UV-I 0 W/m 0,0 km/h (0 Bft)
23.11.2013 23:40 2,1 C 0,0 C 93 % 1020,8 hPa 0,0 l/m 0 min 0 min 0,0 UV-I 0 W/m 0,0 km/h (0 Bft)
23.11.2013 23:42 2,1 C 0,0 C 93 % 1020,7 hPa 0,0 l/m 0 min 0 min 0,0 UV-I 0 W/m 0,0 km/h (0 Bft)
23.11.2013 23:44 2,1 C 0,0 C 93 % 1020,7 hPa 0,0 l/m 0 min 0 min 0,0 UV-I 0 W/m 0,0 km/h (0 Bft)
23.11.2013 23:46 2,0 C 0,0 C 93 % 1020,7 hPa 0,0 l/m 0 min 0 min 0,0 UV-I 0 W/m 0,0 km/h (0 Bft)
23.11.2013 23:48 2,0 C 0,0 C 93 % 1020,6 hPa 0,0 l/m 0 min 0 min 0,0 UV-I 0 W/m 0,0 km/h (0 Bft)
23.11.2013 23:50 1,9 C 0,0 C 93 % 1020,7 hPa 0,0 l/m 0 min 0 min 0,0 UV-I 0 W/m 0,0 km/h (0 Bft)
23.11.2013 23:52 1,9 C 0,0 C 93 % 1020,7 hPa 0,0 l/m 0 min 0 min 0,0 UV-I 0 W/m 0,0 km/h (0 Bft)
23.11.2013 23:54 1,9 C 0,0 C 93 % 1020,8 hPa 0,0 l/m 0 min 0 min 0,0 UV-I 0 W/m 0,0 km/h (0 Bft)
23.11.2013 23:56 1,9 C 0,0 C 93 % 1020,8 hPa 0,0 l/m 0 min 0 min 0,0 UV-I 0 W/m 0,0 km/h (0 Bft)
23.11.2013 23:58 1,8 C 0,0 C 93 % 1020,8 hPa 0,0 l/m 0 min 0 min 0,0 UV-I 0 W/m 0,0 km/h (0 Bft)
_ Min-Zeit 23:58 23:40 20:48 00:02 - - - - - 00:00
Minimum _ 1,8 C 0,0 C 89 % 1014,9 hPa - - - - - 0,0 km/h (0 Bft)
_ Max-Zeit 15:54 12:06 08:06 23:26 00:00 15:52 03:20 00:00 12:58 18:58
Maximum _ 6,1 C 5,0 C 95 % 1020,8 hPa 0,0 l/m 2 min 2 min 0,0 UV-I 77 W/m 25,7 km/h
N-NW (4 Bft)
Durchschnitt _ 4,8 C 3,7 C 93 % 1018,0 hPa #0,0 l/m #4 min. #32 min. 0,0 UV-I 32 W/m 9,2 km/h (2 Bft)
© 2013 W. Hausmann